Time,TemperatureF,DewpointF,PressureIn,WindDirection,WindDirectionDegrees,WindSpeedMPH,WindSpeedGustMPH,Humidity,HourlyPrecipIn,Conditions,Clouds,dailyrainin,SoftwareType,DateUTC
2013-09-22 00:01:00,58.4,54.9,29.70,ESE,114,0.0,0.0,88,0.00,,,0.00,Wunderground v.1.15,2013-09-22 07:01:00,
2013-09-22 00:03:00,58.4,54.9,29.70,ESE,114,0.0,0.0,88,0.00,,,0.00,Wunderground v.1.15,2013-09-22 07:03:00,
2013-09-22 00:07:00,58.3,55.1,29.70,ESE,114,0.0,0.0,89,0.00,,,0.00,Wunderground v.1.15,2013-09-22 07:07:00,
2013-09-22 00:09:00,58.3,55.1,29.70,ESE,114,0.0,0.0,89,0.00,,,0.00,Wunderground v.1.15,2013-09-22 07:09:00,
2013-09-22 00:12:00,58.3,55.1,29.70,ESE,114,0.0,0.0,89,0.00,,,0.00,Wunderground v.1.15,2013-09-22 07:12:00,
2013-09-22 00:13:00,58.4,55.2,29.70,ESE,114,0.0,0.0,89,0.00,,,0.00,Wunderground v.1.15,2013-09-22 07:13:00,
2013-09-22 00:14:00,58.4,55.2,29.70,ESE,114,0.0,0.0,89,0.00,,,0.00,Wunderground v.1.15,2013-09-22 07:14:00,
2013-09-22 00:15:00,58.4,55.2,29.70,ESE,114,0.0,0.0,89,0.00,,,0.00,Wunderground v.1.15,2013-09-22 07:15:00,
2013-09-22 00:18:00,58.4,55.2,29.71,ESE,114,0.0,0.0,89,0.00,,,0.00,Wunderground v.1.15,2013-09-22 07:18:00,
2013-09-22 00:20:00,58.4,55.2,29.70,ESE,114,0.0,0.0,89,0.00,,,0.00,Wunderground v.1.15,2013-09-22 07:20:00,
2013-09-22 00:21:00,58.4,55.2,29.70,ESE,114,0.0,0.0,89,0.00,,,0.00,Wunderground v.1.15,2013-09-22 07:21:00,
2013-09-22 00:22:00,58.4,55.2,29.70,ESE,114,0.0,0.0,89,0.00,,,0.00,Wunderground v.1.15,2013-09-22 07:22:00,
2013-09-22 00:25:00,58.4,55.2,29.70,ESE,114,0.0,0.0,89,0.00,,,0.00,Wunderground v.1.15,2013-09-22 07:25:00,
2013-09-22 00:27:00,58.4,55.2,29.70,ESE,114,0.0,0.0,89,0.00,,,0.00,Wunderground v.1.15,2013-09-22 07:27:00,
2013-09-22 00:28:00,58.3,55.1,29.71,ESE,114,0.0,0.0,89,0.00,,,0.00,Wunderground v.1.15,2013-09-22 07:28:00,
2013-09-22 00:31:00,58.4,55.5,29.71,ESE,114,0.0,0.0,90,0.00,,,0.00,Wunderground v.1.15,2013-09-22 07:31:00,
2013-09-22 00:32:00,58.4,55.5,29.71,ENE,67,3.0,3.0,90,0.00,,,0.00,Wunderground v.1.15,2013-09-22 07:32:00,
2013-09-22 00:34:00,58.4,55.5,29.71,ENE,77,0.0,3.0,90,0.00,,,0.00,Wunderground v.1.15,2013-09-22 07:34:00,
2013-09-22 00:38:00,58.4,55.2,29.71,ENE,77,0.0,3.0,89,0.00,,,0.00,Wunderground v.1.15,2013-09-22 07:38:00,
2013-09-22 00:39:00,58.4,55.2,29.70,ENE,77,0.0,3.0,89,0.00,,,0.00,Wunderground v.1.15,2013-09-22 07:39:00,
2013-09-22 00:40:00,58.5,55.3,29.70,ENE,77,0.0,0.0,89,0.00,,,0.00,Wunderground v.1.15,2013-09-22 07:40:00,
2013-09-22 00:43:00,58.5,55.3,29.71,ENE,78,0.0,0.0,89,0.00,,,0.00,Wunderground v.1.15,2013-09-22 07:43:00,
2013-09-22 00:45:00,58.5,55.3,29.70,East,87,0.0,0.0,89,0.00,,,0.00,Wunderground v.1.15,2013-09-22 07:45:00,
2013-09-22 00:46:00,58.6,55.4,29.70,East,87,0.0,0.0,89,0.00,,,0.00,Wunderground v.1.15,2013-09-22 07:46:00,
2013-09-22 00:50:00,58.6,55.4,29.70,East,86,0.0,0.0,89,0.00,,,0.00,Wunderground v.1.15,2013-09-22 07:50:00,
2013-09-22 00:51:00,58.6,55.4,29.70,East,87,0.0,0.0,89,0.00,,,0.00,Wunderground v.1.15,2013-09-22 07:51:00,
2013-09-22 00:55:00,58.6,55.4,29.70,East,86,0.0,0.0,89,0.00,,,0.00,Wunderground v.1.15,2013-09-22 07:55:00,
2013-09-22 00:56:00,58.6,55.4,29.70,East,86,0.0,0.0,89,0.00,,,0.00,Wunderground v.1.15,2013-09-22 07:56:00,
2013-09-22 00:57:00,58.6,55.7,29.70,NE,35,0.0,0.0,90,0.00,,,0.00,Wunderground v.1.15,2013-09-22 07:57:00,
2013-09-22 00:58:00,58.6,55.7,29.70,ESE,103,0.0,0.0,90,0.00,,,0.00,Wunderground v.1.15,2013-09-22 07:58:00,
2013-09-22 01:02:00,58.6,55.7,29.70,ESE,104,0.0,0.0,90,0.00,,,0.00,Wunderground v.1.15,2013-09-22 08:02:00,
2013-09-22 01:04:00,58.6,55.4,29.70,ESE,103,0.0,0.0,89,0.00,,,0.00,Wunderground v.1.15,2013-09-22 08:04:00,
2013-09-22 01:06:00,58.6,55.7,29.70,NE,43,0.0,3.0,90,0.00,,,0.00,Wunderground v.1.15,2013-09-22 08:06:00,
2013-09-22 01:07:00,58.6,55.7,29.70,NE,43,0.0,3.0,90,0.00,,,0.00,Wunderground v.1.15,2013-09-22 08:07:00,
2013-09-22 01:10:00,58.6,55.4,29.70,NE,43,0.0,0.0,89,0.00,,,0.00,Wunderground v.1.15,2013-09-22 08:10:00,
2013-09-22 01:11:00,58.6,55.4,29.70,NE,43,0.0,0.0,89,0.00,,,0.00,Wunderground v.1.15,2013-09-22 08:11:00,
2013-09-22 01:13:00,58.6,55.4,29.70,NE,43,0.0,0.0,89,0.00,,,0.00,Wunderground v.1.15,2013-09-22 08:13:00,
2013-09-22 01:14:00,58.6,55.4,29.70,NE,43,0.0,0.0,89,0.00,,,0.00,Wunderground v.1.15,2013-09-22 08:14:00,
2013-09-22 01:17:00,58.6,55.7,29.70,NE,43,0.0,0.0,90,0.00,,,0.01,Wunderground v.1.15,2013-09-22 08:17:00,
2013-09-22 01:20:00,58.5,55.6,29.70,ENE,68,0.0,0.0,90,0.00,,,0.01,Wunderground v.1.15,2013-09-22 08:20:00,
2013-09-22 01:22:00,58.5,55.6,29.70,ENE,68,0.0,0.0,90,0.00,,,0.01,Wunderground v.1.15,2013-09-22 08:22:00,
2013-09-22 01:23:00,58.5,55.9,29.70,ENE,67,0.0,0.0,91,0.00,,,0.01,Wunderground v.1.15,2013-09-22 08:23:00,
2013-09-22 01:24:00,58.5,55.9,29.70,ENE,67,0.0,0.0,91,0.00,,,0.01,Wunderground v.1.15,2013-09-22 08:24:00,
2013-09-22 01:27:00,58.4,55.8,29.70,ENE,68,0.0,0.0,91,0.00,,,0.01,Wunderground v.1.15,2013-09-22 08:27:00,
2013-09-22 01:29:00,58.3,55.7,29.70,ENE,68,0.0,0.0,91,0.00,,,0.01,Wunderground v.1.15,2013-09-22 08:29:00,
2013-09-22 01:32:00,58.2,55.6,29.70,ENE,68,0.0,0.0,91,0.00,,,0.01,Wunderground v.1.15,2013-09-22 08:32:00,
2013-09-22 01:33:00,58.2,55.6,29.71,ENE,68,0.0,0.0,91,0.00,,,0.01,Wunderground v.1.15,2013-09-22 08:33:00,
2013-09-22 01:36:00,58.1,55.8,29.70,ENE,68,0.0,0.0,92,0.00,,,0.01,Wunderground v.1.15,2013-09-22 08:36:00,
2013-09-22 01:39:00,58.0,55.7,29.70,ENE,67,0.0,0.0,92,0.00,,,0.01,Wunderground v.1.15,2013-09-22 08:39:00,
2013-09-22 01:40:00,58.0,55.7,29.71,ENE,67,0.0,0.0,92,0.00,,,0.01,Wunderground v.1.15,2013-09-22 08:40:00,
2013-09-22 01:41:00,58.0,55.7,29.70,ENE,68,0.0,0.0,92,0.00,,,0.01,Wunderground v.1.15,2013-09-22 08:41:00,
2013-09-22 01:43:00,57.9,55.6,29.70,ENE,68,0.0,0.0,92,0.00,,,0.01,Wunderground v.1.15,2013-09-22 08:43:00,
2013-09-22 01:44:00,57.9,55.6,29.70,ENE,68,0.0,0.0,92,0.00,,,0.01,Wunderground v.1.15,2013-09-22 08:44:00,
2013-09-22 01:45:00,57.8,55.5,29.71,ENE,68,0.0,0.0,92,0.00,,,0.01,Wunderground v.1.15,2013-09-22 08:45:00,
2013-09-22 01:47:00,57.8,55.5,29.71,ENE,68,0.0,0.0,92,0.00,,,0.01,Wunderground v.1.15,2013-09-22 08:47:00,
2013-09-22 01:48:00,57.8,55.5,29.70,ENE,68,0.0,0.0,92,0.00,,,0.01,Wunderground v.1.15,2013-09-22 08:48:00,
2013-09-22 01:51:00,57.7,55.7,29.70,ENE,68,0.0,0.0,93,0.00,,,0.01,Wunderground v.1.15,2013-09-22 08:51:00,
2013-09-22 01:55:00,57.5,55.2,29.70,ENE,68,0.0,0.0,92,0.00,,,0.01,Wunderground v.1.15,2013-09-22 08:55:00,
2013-09-22 01:56:00,57.5,55.2,29.70,ENE,68,0.0,0.0,92,0.00,,,0.01,Wunderground v.1.15,2013-09-22 08:56:00,
2013-09-22 01:57:00,57.5,55.2,29.70,ENE,67,0.0,0.0,92,0.00,,,0.01,Wunderground v.1.15,2013-09-22 08:57:00,
2013-09-22 02:00:00,57.4,55.4,29.70,ENE,67,0.0,0.0,93,0.00,,,0.01,Wunderground v.1.15,2013-09-22 09:00:00,
2013-09-22 02:01:00,57.4,55.4,29.70,ENE,67,0.0,0.0,93,0.00,,,0.01,Wunderground v.1.15,2013-09-22 09:01:00,
2013-09-22 02:02:00,57.3,55.3,29.70,ENE,68,0.0,0.0,93,0.00,,,0.01,Wunderground v.1.15,2013-09-22 09:02:00,
2013-09-22 02:06:00,57.3,55.3,29.70,SE,132,1.0,4.0,93,0.00,,,0.01,Wunderground v.1.15,2013-09-22 09:06:00,
2013-09-22 02:07:00,57.2,55.2,29.70,SE,132,0.0,4.0,93,0.00,,,0.01,Wunderground v.1.15,2013-09-22 09:07:00,
2013-09-22 02:11:00,57.2,55.2,29.70,SE,133,0.0,0.0,93,0.00,,,0.01,Wunderground v.1.15,2013-09-22 09:11:00,
2013-09-22 02:12:00,57.2,55.2,29.70,ESE,118,0.0,5.0,93,0.00,,,0.01,Wunderground v.1.15,2013-09-22 09:12:00,
2013-09-22 02:16:00,57.1,55.1,29.70,ESE,118,0.0,5.0,93,0.00,,,0.01,Wunderground v.1.15,2013-09-22 09:16:00,
2013-09-22 02:17:00,57.1,55.1,29.70,SE,141,0.0,5.0,93,0.00,,,0.01,Wunderground v.1.15,2013-09-22 09:17:00,
2013-09-22 02:21:00,57.1,55.1,29.70,SE,142,0.0,0.0,93,0.00,,,0.01,Wunderground v.1.15,2013-09-22 09:21:00,
2013-09-22 02:22:00,57.1,55.1,29.70,SE,141,0.0,0.0,93,0.00,,,0.01,Wunderground v.1.15,2013-09-22 09:22:00,
2013-09-22 02:23:00,57.1,55.1,29.70,SE,141,0.0,0.0,93,0.00,,,0.01,Wunderground v.1.15,2013-09-22 09:23:00,
2013-09-22 02:26:00,57.1,55.1,29.70,SE,141,0.0,1.0,93,0.00,,,0.01,Wunderground v.1.15,2013-09-22 09:26:00,
2013-09-22 02:27:00,57.1,55.1,29.70,SE,142,0.0,1.0,93,0.00,,,0.01,Wunderground v.1.15,2013-09-22 09:27:00,
2013-09-22 02:28:00,57.1,55.1,29.70,SE,141,0.0,1.0,93,0.00,,,0.01,Wunderground v.1.15,2013-09-22 09:28:00,
2013-09-22 02:32:00,57.1,55.1,29.70,SE,141,0.0,0.0,93,0.00,,,0.01,Wunderground v.1.15,2013-09-22 09:32:00,
2013-09-22 02:33:00,57.1,55.1,29.70,SE,141,0.0,0.0,93,0.00,,,0.01,Wunderground v.1.15,2013-09-22 09:33:00,
2013-09-22 02:34:00,57.0,55.0,29.70,SE,141,0.0,1.0,93,0.00,,,0.01,Wunderground v.1.15,2013-09-22 09:34:00,
2013-09-22 02:37:00,57.0,55.0,29.70,East,94,1.0,1.0,93,0.00,,,0.01,Wunderground v.1.15,2013-09-22 09:37:00,
2013-09-22 02:38:00,57.0,55.0,29.70,ESE,117,0.0,1.0,93,0.00,,,0.01,Wunderground v.1.15,2013-09-22 09:38:00,
2013-09-22 02:39:00,56.9,54.9,29.70,SE,133,0.0,1.0,93,0.00,,,0.01,Wunderground v.1.15,2013-09-22 09:39:00,
2013-09-22 02:42:00,56.9,54.9,29.70,SE,133,0.0,0.0,93,0.00,,,0.01,Wunderground v.1.15,2013-09-22 09:42:00,
2013-09-22 02:43:00,56.9,54.9,29.70,SE,133,0.0,0.0,93,0.00,,,0.01,Wunderground v.1.15,2013-09-22 09:43:00,
2013-09-22 02:44:00,56.9,54.9,29.70,SSE,158,0.0,2.0,93,0.00,,,0.01,Wunderground v.1.15,2013-09-22 09:44:00,
2013-09-22 02:47:00,56.9,54.9,29.70,SSE,158,0.0,2.0,93,0.00,,,0.01,Wunderground v.1.15,2013-09-22 09:47:00,
2013-09-22 02:48:00,56.8,54.8,29.70,SSE,157,0.0,2.0,93,0.00,,,0.01,Wunderground v.1.15,2013-09-22 09:48:00,
2013-09-22 02:50:00,56.8,54.8,29.70,SSE,158,0.0,2.0,93,0.00,,,0.01,Wunderground v.1.15,2013-09-22 09:50:00,
2013-09-22 02:53:00,56.8,54.8,29.70,SSE,156,0.0,0.0,93,0.00,,,0.01,Wunderground v.1.15,2013-09-22 09:53:00,
2013-09-22 02:55:00,56.8,54.8,29.70,East,92,0.0,1.0,93,0.00,,,0.01,Wunderground v.1.15,2013-09-22 09:55:00,
2013-09-22 02:56:00,56.8,54.8,29.70,SE,139,0.0,5.0,93,0.00,,,0.01,Wunderground v.1.15,2013-09-22 09:56:00,
2013-09-22 02:58:00,56.8,54.8,29.70,SE,139,0.0,5.0,93,0.00,,,0.01,Wunderground v.1.15,2013-09-22 09:58:00,
2013-09-22 03:00:00,56.8,54.5,29.70,SE,139,0.0,0.0,92,0.00,,,0.01,Wunderground v.1.15,2013-09-22 10:00:00,
2013-09-22 03:02:00,56.8,54.5,29.69,SE,138,1.0,1.0,92,0.00,,,0.01,Wunderground v.1.15,2013-09-22 10:02:00,
2013-09-22 03:03:00,56.8,54.5,29.70,ESE,106,0.0,9.0,92,0.00,,,0.01,Wunderground v.1.15,2013-09-22 10:03:00,
2013-09-22 03:05:00,56.8,54.5,29.69,SE,133,0.0,9.0,92,0.00,,,0.01,Wunderground v.1.15,2013-09-22 10:05:00,
2013-09-22 03:08:00,56.9,54.6,29.69,ESE,113,0.0,9.0,92,0.00,,,0.01,Wunderground v.1.15,2013-09-22 10:08:00,
2013-09-22 03:10:00,56.9,54.6,29.69,ESE,110,0.0,1.0,92,0.00,,,0.01,Wunderground v.1.15,2013-09-22 10:10:00,
2013-09-22 03:13:00,56.9,54.3,29.69,East,90,0.0,4.0,91,0.00,,,0.01,Wunderground v.1.15,2013-09-22 10:13:00,
2013-09-22 03:14:00,56.9,54.3,29.69,East,91,0.0,4.0,91,0.00,,,0.01,Wunderground v.1.15,2013-09-22 10:14:00,
2013-09-22 03:15:00,56.9,54.3,29.69,SE,129,0.0,6.0,91,0.00,,,0.01,Wunderground v.1.15,2013-09-22 10:15:00,
2013-09-22 03:18:00,56.9,54.3,29.69,SE,134,0.0,6.0,91,0.00,,,0.01,Wunderground v.1.15,2013-09-22 10:18:00,
2013-09-22 03:19:00,56.9,54.3,29.69,SE,133,0.0,6.0,91,0.00,,,0.01,Wunderground v.1.15,2013-09-22 10:19:00,
2013-09-22 03:20:00,56.9,54.3,29.69,SE,134,0.0,0.0,91,0.00,,,0.01,Wunderground v.1.15,2013-09-22 10:20:00,
2013-09-22 03:23:00,56.9,54.3,29.69,SE,144,0.0,4.0,91,0.00,,,0.01,Wunderground v.1.15,2013-09-22 10:23:00,
2013-09-22 03:24:00,56.9,54.3,29.69,SE,143,0.0,4.0,91,0.00,,,0.01,Wunderground v.1.15,2013-09-22 10:24:00,
2013-09-22 03:25:00,56.9,54.3,29.69,ESE,116,0.0,4.0,91,0.00,,,0.01,Wunderground v.1.15,2013-09-22 10:25:00,
2013-09-22 03:29:00,56.9,54.3,29.69,SE,129,0.0,4.0,91,0.00,,,0.01,Wunderground v.1.15,2013-09-22 10:29:00,
2013-09-22 03:31:00,56.9,54.3,29.69,SE,128,0.0,1.0,91,0.00,,,0.01,Wunderground v.1.15,2013-09-22 10:31:00,
2013-09-22 03:34:00,56.9,54.3,29.69,SE,131,0.0,4.0,91,0.00,,,0.01,Wunderground v.1.15,2013-09-22 10:34:00,
2013-09-22 03:36:00,56.9,54.3,29.69,SE,131,0.0,4.0,91,0.00,,,0.01,Wunderground v.1.15,2013-09-22 10:36:00,
2013-09-22 03:39:00,56.9,54.3,29.69,SE,126,2.0,4.0,91,0.00,,,0.01,Wunderground v.1.15,2013-09-22 10:39:00,
2013-09-22 03:40:00,56.9,54.0,29.69,SE,132,0.0,4.0,90,0.00,,,0.01,Wunderground v.1.15,2013-09-22 10:40:00,
2013-09-22 03:41:00,56.9,54.0,29.69,SE,132,0.0,1.0,90,0.00,,,0.01,Wunderground v.1.15,2013-09-22 10:41:00,
2013-09-22 03:44:00,56.9,54.0,29.69,East,87,0.0,1.0,90,0.00,,,0.01,Wunderground v.1.15,2013-09-22 10:44:00,
2013-09-22 03:45:00,56.9,54.3,29.69,East,87,0.0,1.0,91,0.00,,,0.01,Wunderground v.1.15,2013-09-22 10:45:00,
2013-09-22 03:46:00,56.9,54.3,29.69,East,87,0.0,1.0,91,0.00,,,0.01,Wunderground v.1.15,2013-09-22 10:46:00,
2013-09-22 03:49:00,56.9,54.0,29.69,SE,132,0.0,5.0,90,0.00,,,0.01,Wunderground v.1.15,2013-09-22 10:49:00,
2013-09-22 03:50:00,56.9,54.0,29.69,SE,135,0.0,0.0,90,0.00,,,0.01,Wunderground v.1.15,2013-09-22 10:50:00,
2013-09-22 03:51:00,56.9,54.0,29.69,SE,135,0.0,0.0,90,0.00,,,0.01,Wunderground v.1.15,2013-09-22 10:51:00,
2013-09-22 04:05:00,56.9,54.0,29.69,SE,137,0.0,6.0,90,0.00,,,0.01,Wunderground v.1.15,2013-09-22 11:05:00,
2013-09-22 04:06:00,56.9,54.0,29.69,SE,136,0.0,6.0,90,0.00,,,0.01,Wunderground v.1.15,2013-09-22 11:06:00,
2013-09-22 04:11:00,56.9,54.0,29.69,SSE,148,0.0,1.0,90,0.00,,,0.01,Wunderground v.1.15,2013-09-22 11:11:00,
2013-09-22 04:12:00,56.9,54.0,29.69,SE,140,0.0,1.0,90,0.00,,,0.01,Wunderground v.1.15,2013-09-22 11:12:00,
2013-09-22 04:16:00,57.0,54.1,29.69,SSE,161,0.0,2.0,90,0.00,,,0.01,Wunderground v.1.15,2013-09-22 11:16:00,
2013-09-22 04:17:00,56.9,54.0,29.68,SSE,162,0.0,2.0,90,0.00,,,0.01,Wunderground v.1.15,2013-09-22 11:17:00,
2013-09-22 04:21:00,56.9,54.0,29.68,ESE,103,0.0,2.0,90,0.00,,,0.01,Wunderground v.1.15,2013-09-22 11:21:00,
2013-09-22 04:22:00,56.9,54.0,29.68,ESE,103,0.0,2.0,90,0.00,,,0.01,Wunderground v.1.15,2013-09-22 11:22:00,
2013-09-22 04:26:00,56.9,54.0,29.68,East,86,0.0,2.0,90,0.00,,,0.01,Wunderground v.1.15,2013-09-22 11:26:00,
2013-09-22 04:27:00,56.9,54.0,29.68,East,95,0.0,2.0,90,0.00,,,0.01,Wunderground v.1.15,2013-09-22 11:27:00,
2013-09-22 04:28:00,56.9,54.0,29.68,East,94,0.0,2.0,90,0.00,,,0.01,Wunderground v.1.15,2013-09-22 11:28:00,
2013-09-22 04:32:00,56.9,54.0,29.68,SE,145,0.0,4.0,90,0.00,,,0.01,Wunderground v.1.15,2013-09-22 11:32:00,
2013-09-22 04:34:00,56.8,53.9,29.69,SE,145,0.0,4.0,90,0.00,,,0.01,Wunderground v.1.15,2013-09-22 11:34:00,
2013-09-22 04:37:00,56.9,54.0,29.68,SSE,150,0.0,4.0,90,0.00,,,0.01,Wunderground v.1.15,2013-09-22 11:37:00,
2013-09-22 04:39:00,56.8,53.9,29.68,SE,145,0.0,4.0,90,0.00,,,0.01,Wunderground v.1.15,2013-09-22 11:39:00,
2013-09-22 04:42:00,56.8,53.9,29.68,ENE,74,0.0,0.0,90,0.00,,,0.01,Wunderground v.1.15,2013-09-22 11:42:00,
2013-09-22 04:43:00,56.8,53.9,29.68,ENE,73,0.0,0.0,90,0.00,,,0.01,Wunderground v.1.15,2013-09-22 11:43:00,
2013-09-22 04:46:00,56.7,53.8,29.68,SE,124,0.0,1.0,90,0.00,,,0.02,Wunderground v.1.15,2013-09-22 11:46:00,
2013-09-22 04:47:00,56.6,53.7,29.68,SE,124,0.0,1.0,90,0.00,,,0.02,Wunderground v.1.15,2013-09-22 11:47:00,
2013-09-22 04:48:00,56.7,53.8,29.68,SE,124,0.0,1.0,90,0.00,,,0.02,Wunderground v.1.15,2013-09-22 11:48:00,
2013-09-22 04:49:00,56.6,53.7,29.68,ESE,114,2.0,3.0,90,0.00,,,0.02,Wunderground v.1.15,2013-09-22 11:49:00,
2013-09-22 04:52:00,56.6,54.0,29.68,ESE,102,0.0,1.0,91,0.00,,,0.02,Wunderground v.1.15,2013-09-22 11:52:00,
2013-09-22 04:53:00,56.6,54.0,29.68,East,101,0.0,1.0,91,0.00,,,0.02,Wunderground v.1.15,2013-09-22 11:53:00,
2013-09-22 04:56:00,56.5,53.9,29.68,East,101,0.0,1.0,91,0.00,,,0.02,Wunderground v.1.15,2013-09-22 11:56:00,
2013-09-22 04:57:00,56.5,53.9,29.68,ESE,102,0.0,1.0,91,0.00,,,0.02,Wunderground v.1.15,2013-09-22 11:57:00,
2013-09-22 04:58:00,56.5,53.9,29.68,ESE,106,5.0,5.0,91,0.00,,,0.02,Wunderground v.1.15,2013-09-22 11:58:00,
2013-09-22 05:01:00,56.4,53.8,29.68,ENE,62,0.0,0.0,91,0.00,,,0.02,Wunderground v.1.15,2013-09-22 12:01:00,
2013-09-22 05:03:00,56.4,53.8,29.68,ENE,62,0.0,0.0,91,0.00,,,0.02,Wunderground v.1.15,2013-09-22 12:03:00,
2013-09-22 05:04:00,56.4,53.8,29.68,NNE,33,1.0,3.0,91,0.00,,,0.02,Wunderground v.1.15,2013-09-22 12:04:00,
2013-09-22 05:06:00,56.4,53.8,29.69,SE,125,2.0,3.0,91,0.00,,,0.02,Wunderground v.1.15,2013-09-22 12:06:00,
2013-09-22 05:08:00,56.4,53.8,29.69,SE,139,0.0,3.0,91,0.00,,,0.02,Wunderground v.1.15,2013-09-22 12:08:00,
2013-09-22 05:09:00,56.4,53.8,29.69,East,81,0.0,3.0,91,0.00,,,0.02,Wunderground v.1.15,2013-09-22 12:09:00,
2013-09-22 05:11:00,56.4,53.8,29.69,NNE,20,2.0,5.0,91,0.00,,,0.02,Wunderground v.1.15,2013-09-22 12:11:00,
2013-09-22 05:13:00,56.3,53.7,29.69,East,86,0.0,5.0,91,0.00,,,0.02,Wunderground v.1.15,2013-09-22 12:13:00,
2013-09-22 05:14:00,56.3,53.7,29.68,East,85,0.0,5.0,91,0.00,,,0.03,Wunderground v.1.15,2013-09-22 12:14:00,
2013-09-22 05:16:00,56.2,53.9,29.68,ENE,72,0.0,5.0,92,0.00,,,0.03,Wunderground v.1.15,2013-09-22 12:16:00,
2013-09-22 05:18:00,56.2,53.9,29.68,ENE,72,0.0,5.0,92,0.00,,,0.03,Wunderground v.1.15,2013-09-22 12:18:00,
2013-09-22 05:19:00,56.2,53.9,29.68,ENE,72,0.0,5.0,92,0.00,,,0.03,Wunderground v.1.15,2013-09-22 12:19:00,
2013-09-22 05:20:00,56.1,53.8,29.68,ENE,72,1.0,1.0,92,0.00,,,0.03,Wunderground v.1.15,2013-09-22 12:20:00,
2013-09-22 05:22:00,56.1,53.8,29.68,ESE,104,0.0,1.0,92,0.00,,,0.03,Wunderground v.1.15,2013-09-22 12:22:00,
2013-09-22 05:23:00,56.0,53.7,29.68,ESE,103,0.0,1.0,92,0.00,,,0.03,Wunderground v.1.15,2013-09-22 12:23:00,
2013-09-22 05:24:00,55.9,53.6,29.69,ESE,103,0.0,1.0,92,0.00,,,0.03,Wunderground v.1.15,2013-09-22 12:24:00,
2013-09-22 05:25:00,55.9,53.6,29.68,ESE,123,0.0,4.0,92,0.00,,,0.03,Wunderground v.1.15,2013-09-22 12:25:00,
2013-09-22 05:27:00,55.8,53.5,29.68,ESE,122,0.0,4.0,92,0.00,,,0.03,Wunderground v.1.15,2013-09-22 12:27:00,
2013-09-22 05:28:00,55.7,53.4,29.69,SE,137,4.0,4.0,92,0.04,,,0.04,Wunderground v.1.15,2013-09-22 12:28:00,
2013-09-22 05:29:00,55.7,53.4,29.69,SE,138,4.0,4.0,92,0.04,,,0.04,Wunderground v.1.15,2013-09-22 12:29:00,
2013-09-22 05:30:00,55.6,53.3,29.68,SE,128,0.0,1.0,92,0.04,,,0.04,Wunderground v.1.15,2013-09-22 12:30:00,
2013-09-22 05:32:00,55.5,53.2,29.69,SE,126,2.0,2.0,92,0.04,,,0.04,Wunderground v.1.15,2013-09-22 12:32:00,
2013-09-22 05:33:00,55.4,53.1,29.69,ESE,110,0.0,4.0,92,0.04,,,0.04,Wunderground v.1.15,2013-09-22 12:33:00,
2013-09-22 05:34:00,55.4,53.1,29.69,ESE,110,0.0,4.0,92,0.04,,,0.04,Wunderground v.1.15,2013-09-22 12:34:00,
2013-09-22 05:36:00,55.2,52.9,29.69,ENE,71,0.0,4.0,92,0.04,,,0.04,Wunderground v.1.15,2013-09-22 12:36:00,
2013-09-22 05:37:00,55.1,52.8,29.68,ENE,71,0.0,4.0,92,0.04,,,0.04,Wunderground v.1.15,2013-09-22 12:37:00,
2013-09-22 05:39:00,55.1,53.1,29.68,ENE,70,0.0,4.0,93,0.04,,,0.04,Wunderground v.1.15,2013-09-22 12:39:00,
2013-09-22 05:40:00,55.1,53.1,29.68,ENE,70,0.0,0.0,93,0.04,,,0.04,Wunderground v.1.15,2013-09-22 12:40:00,
2013-09-22 05:41:00,55.0,53.0,29.68,ESE,122,0.0,0.0,93,0.04,,,0.04,Wunderground v.1.15,2013-09-22 12:41:00,
2013-09-22 05:43:00,54.9,52.6,29.68,ESE,120,0.0,0.0,92,0.04,,,0.04,Wunderground v.1.15,2013-09-22 12:43:00,
2013-09-22 05:44:00,54.9,52.9,29.68,ESE,123,0.0,0.0,93,0.04,,,0.04,Wunderground v.1.15,2013-09-22 12:44:00,
2013-09-22 05:45:00,54.8,52.5,29.68,East,81,0.0,6.0,92,0.00,,,0.04,Wunderground v.1.15,2013-09-22 12:45:00,
2013-09-22 05:46:00,54.7,52.4,29.68,SE,139,1.0,6.0,92,0.00,,,0.04,Wunderground v.1.15,2013-09-22 12:46:00,
2013-09-22 05:48:00,54.6,52.3,29.68,ESE,123,0.0,6.0,92,0.00,,,0.04,Wunderground v.1.15,2013-09-22 12:48:00,
2013-09-22 05:49:00,54.6,52.3,29.68,ESE,123,0.0,6.0,92,0.00,,,0.04,Wunderground v.1.15,2013-09-22 12:49:00,
2013-09-22 05:50:00,54.5,52.5,29.68,ENE,75,0.0,1.0,93,0.00,,,0.04,Wunderground v.1.15,2013-09-22 12:50:00,
2013-09-22 05:52:00,54.4,52.4,29.68,SSE,162,0.0,1.0,93,0.00,,,0.04,Wunderground v.1.15,2013-09-22 12:52:00,
2013-09-22 05:53:00,54.4,52.4,29.68,SSE,160,0.0,1.0,93,0.00,,,0.04,Wunderground v.1.15,2013-09-22 12:53:00,
2013-09-22 05:54:00,54.4,52.4,29.68,SSE,160,0.0,1.0,93,0.00,,,0.04,Wunderground v.1.15,2013-09-22 12:54:00,
2013-09-22 05:55:00,54.4,52.4,29.68,ENE,68,0.0,2.0,93,0.00,,,0.04,Wunderground v.1.15,2013-09-22 12:55:00,
2013-09-22 05:56:00,54.4,52.4,29.68,ENE,68,0.0,2.0,93,0.00,,,0.04,Wunderground v.1.15,2013-09-22 12:56:00,
2013-09-22 05:57:00,54.4,52.4,29.68,ENE,70,0.0,2.0,93,0.00,,,0.04,Wunderground v.1.15,2013-09-22 12:57:00,
2013-09-22 05:59:00,54.3,52.3,29.68,ENE,68,0.0,2.0,93,0.00,,,0.04,Wunderground v.1.15,2013-09-22 12:59:00,
2013-09-22 06:00:00,54.3,52.3,29.68,ESE,116,0.0,0.0,93,0.00,,,0.04,Wunderground v.1.15,2013-09-22 13:00:00,
2013-09-22 06:01:00,54.3,52.3,29.68,ESE,117,0.0,0.0,93,0.00,,,0.04,Wunderground v.1.15,2013-09-22 13:01:00,
2013-09-22 06:02:00,54.2,52.2,29.68,ESE,120,2.0,2.0,93,0.00,,,0.04,Wunderground v.1.15,2013-09-22 13:02:00,
2013-09-22 06:04:00,54.2,52.2,29.68,ESE,114,0.0,2.0,93,0.00,,,0.04,Wunderground v.1.15,2013-09-22 13:04:00,
2013-09-22 06:05:00,54.2,52.2,29.68,ESE,116,0.0,2.0,93,0.00,,,0.04,Wunderground v.1.15,2013-09-22 13:05:00,
2013-09-22 06:06:00,54.2,52.2,29.68,ESE,114,0.0,2.0,93,0.00,,,0.04,Wunderground v.1.15,2013-09-22 13:06:00,
2013-09-22 06:07:00,54.2,52.2,29.68,ESE,116,0.0,2.0,93,0.00,,,0.04,Wunderground v.1.15,2013-09-22 13:07:00,
2013-09-22 06:09:00,54.1,52.1,29.69,SE,126,0.0,2.0,93,0.00,,,0.04,Wunderground v.1.15,2013-09-22 13:09:00,
2013-09-22 06:10:00,54.2,52.2,29.69,ESE,113,0.0,0.0,93,0.00,,,0.04,Wunderground v.1.15,2013-09-22 13:10:00,
2013-09-22 06:11:00,54.1,52.1,29.68,ESE,114,0.0,0.0,93,0.00,,,0.04,Wunderground v.1.15,2013-09-22 13:11:00,
2013-09-22 06:13:00,54.1,52.4,29.69,ESE,114,0.0,0.0,94,0.00,,,0.04,Wunderground v.1.15,2013-09-22 13:13:00,
2013-09-22 06:15:00,54.2,52.5,29.69,SE,143,0.0,2.0,94,0.00,,,0.05,Wunderground v.1.15,2013-09-22 13:15:00,
2013-09-22 06:16:00,54.1,52.4,29.69,SE,141,0.0,2.0,94,0.00,,,0.05,Wunderground v.1.15,2013-09-22 13:16:00,
2013-09-22 06:18:00,54.1,52.4,29.69,SE,143,0.0,2.0,94,0.00,,,0.05,Wunderground v.1.15,2013-09-22 13:18:00,
2013-09-22 06:20:00,54.2,52.5,29.68,SE,143,0.0,1.0,94,0.00,,,0.05,Wunderground v.1.15,2013-09-22 13:20:00,
2013-09-22 06:21:00,54.2,52.5,29.68,SE,143,0.0,1.0,94,0.00,,,0.05,Wunderground v.1.15,2013-09-22 13:21:00,
2013-09-22 06:22:00,54.2,52.5,29.68,SE,141,0.0,1.0,94,0.00,,,0.05,Wunderground v.1.15,2013-09-22 13:22:00,
2013-09-22 06:24:00,54.2,52.5,29.68,ESE,112,0.0,3.0,94,0.00,,,0.05,Wunderground v.1.15,2013-09-22 13:24:00,
2013-09-22 06:25:00,54.1,52.4,29.68,East,96,0.0,3.0,94,0.00,,,0.05,Wunderground v.1.15,2013-09-22 13:25:00,
2013-09-22 06:26:00,54.2,52.5,29.68,ENE,66,0.0,3.0,94,0.00,,,0.05,Wunderground v.1.15,2013-09-22 13:26:00,
2013-09-22 06:27:00,54.2,52.5,29.68,ESE,103,0.0,3.0,94,0.00,,,0.05,Wunderground v.1.15,2013-09-22 13:27:00,
2013-09-22 06:29:00,54.1,52.4,29.68,ESE,103,0.0,3.0,94,0.00,,,0.05,Wunderground v.1.15,2013-09-22 13:29:00,
2013-09-22 06:30:00,54.1,52.4,29.68,ESE,105,0.0,1.0,94,0.00,,,0.05,Wunderground v.1.15,2013-09-22 13:30:00,
2013-09-22 06:31:00,54.1,52.4,29.68,ESE,103,0.0,1.0,94,0.00,,,0.05,Wunderground v.1.15,2013-09-22 13:31:00,
2013-09-22 06:32:00,54.1,52.4,29.68,NE,45,2.0,2.0,94,0.00,,,0.05,Wunderground v.1.15,2013-09-22 13:32:00,
2013-09-22 06:33:00,54.1,52.4,29.68,NE,46,0.0,2.0,94,0.00,,,0.05,Wunderground v.1.15,2013-09-22 13:33:00,
2013-09-22 06:34:00,54.1,52.4,29.68,NE,45,0.0,2.0,94,0.00,,,0.05,Wunderground v.1.15,2013-09-22 13:34:00,
2013-09-22 06:36:00,54.0,52.3,29.68,NE,45,0.0,2.0,94,0.00,,,0.05,Wunderground v.1.15,2013-09-22 13:36:00,
2013-09-22 06:37:00,54.0,52.3,29.68,ESE,114,0.0,2.0,94,0.00,,,0.05,Wunderground v.1.15,2013-09-22 13:37:00,
2013-09-22 06:38:00,54.0,52.3,29.68,East,85,0.0,9.0,94,0.00,,,0.05,Wunderground v.1.15,2013-09-22 13:38:00,
2013-09-22 06:40:00,54.0,52.3,29.68,East,85,0.0,0.0,94,0.00,,,0.05,Wunderground v.1.15,2013-09-22 13:40:00,
2013-09-22 06:41:00,54.0,52.3,29.68,East,86,0.0,0.0,94,0.00,,,0.05,Wunderground v.1.15,2013-09-22 13:41:00,
2013-09-22 06:42:00,54.0,52.3,29.68,East,84,0.0,0.0,94,0.00,,,0.05,Wunderground v.1.15,2013-09-22 13:42:00,
2013-09-22 06:43:00,54.0,52.3,29.68,East,99,0.0,5.0,94,0.00,,,0.05,Wunderground v.1.15,2013-09-22 13:43:00,
2013-09-22 06:45:00,54.0,52.3,29.68,SE,126,0.0,6.0,94,0.00,,,0.05,Wunderground v.1.15,2013-09-22 13:45:00,
2013-09-22 06:46:00,54.1,52.4,29.68,SE,127,0.0,6.0,94,0.00,,,0.05,Wunderground v.1.15,2013-09-22 13:46:00,
2013-09-22 06:47:00,54.1,52.4,29.68,SE,127,0.0,6.0,94,0.00,,,0.05,Wunderground v.1.15,2013-09-22 13:47:00,
2013-09-22 06:49:00,54.1,52.4,29.68,SE,124,0.0,6.0,94,0.00,,,0.05,Wunderground v.1.15,2013-09-22 13:49:00,
2013-09-22 06:51:00,54.1,52.4,29.68,ESE,122,4.0,4.0,94,0.00,,,0.05,Wunderground v.1.15,2013-09-22 13:51:00,
2013-09-22 06:52:00,54.1,52.4,29.68,SSE,152,0.0,5.0,94,0.00,,,0.05,Wunderground v.1.15,2013-09-22 13:52:00,
2013-09-22 06:54:00,54.1,52.4,29.68,SSE,151,0.0,5.0,94,0.00,,,0.05,Wunderground v.1.15,2013-09-22 13:54:00,
2013-09-22 06:56:00,54.1,52.4,29.68,South,170,0.0,6.0,94,0.00,,,0.05,Wunderground v.1.15,2013-09-22 13:56:00,
2013-09-22 06:58:00,54.1,52.4,29.68,SE,133,5.0,6.0,94,0.00,,,0.05,Wunderground v.1.15,2013-09-22 13:58:00,
2013-09-22 07:00:00,54.1,52.4,29.68,SE,131,0.0,1.0,94,0.00,,,0.05,Wunderground v.1.15,2013-09-22 14:00:00,
2013-09-22 07:01:00,54.1,52.4,29.68,SE,132,0.0,1.0,94,0.00,,,0.05,Wunderground v.1.15,2013-09-22 14:01:00,
2013-09-22 07:03:00,54.1,52.4,29.68,North,5,0.0,1.0,94,0.00,,,0.05,Wunderground v.1.15,2013-09-22 14:03:00,
2013-09-22 07:05:00,54.1,52.4,29.68,SE,131,0.0,1.0,94,0.00,,,0.05,Wunderground v.1.15,2013-09-22 14:05:00,
2013-09-22 07:06:00,54.1,52.4,29.68,SE,131,0.0,1.0,94,0.00,,,0.05,Wunderground v.1.15,2013-09-22 14:06:00,
2013-09-22 07:07:00,54.1,52.4,29.68,SE,131,0.0,1.0,94,0.00,,,0.05,Wunderground v.1.15,2013-09-22 14:07:00,
2013-09-22 07:08:00,54.1,52.4,29.68,SE,131,0.0,2.0,94,0.00,,,0.05,Wunderground v.1.15,2013-09-22 14:08:00,
2013-09-22 07:11:00,54.1,52.4,29.68,SE,129,0.0,2.0,94,0.00,,,0.05,Wunderground v.1.15,2013-09-22 14:11:00,
2013-09-22 07:12:00,54.1,52.4,29.68,ESE,120,0.0,2.0,94,0.00,,,0.05,Wunderground v.1.15,2013-09-22 14:12:00,
2013-09-22 07:13:00,54.1,52.4,29.68,ESE,120,0.0,2.0,94,0.00,,,0.05,Wunderground v.1.15,2013-09-22 14:13:00,
2013-09-22 07:16:00,54.1,52.4,29.68,ESE,119,0.0,2.0,94,0.00,,,0.05,Wunderground v.1.15,2013-09-22 14:16:00,
2013-09-22 07:17:00,54.1,52.4,29.68,ESE,119,0.0,2.0,94,0.00,,,0.05,Wunderground v.1.15,2013-09-22 14:17:00,
2013-09-22 07:18:00,54.1,52.4,29.68,ESE,118,0.0,2.0,94,0.00,,,0.05,Wunderground v.1.15,2013-09-22 14:18:00,
2013-09-22 07:21:00,54.2,52.5,29.68,ESE,120,0.0,4.0,94,0.00,,,0.05,Wunderground v.1.15,2013-09-22 14:21:00,
2013-09-22 07:22:00,54.2,52.5,29.68,ESE,118,0.0,4.0,94,0.00,,,0.05,Wunderground v.1.15,2013-09-22 14:22:00,
2013-09-22 07:23:00,54.2,52.5,29.68,ESE,120,0.0,4.0,94,0.00,,,0.05,Wunderground v.1.15,2013-09-22 14:23:00,
2013-09-22 07:26:00,54.3,52.6,29.68,SE,126,0.0,6.0,94,0.00,,,0.05,Wunderground v.1.15,2013-09-22 14:26:00,
2013-09-22 07:27:00,54.3,52.6,29.68,SE,126,0.0,6.0,94,0.00,,,0.05,Wunderground v.1.15,2013-09-22 14:27:00,
2013-09-22 07:28:00,54.3,52.6,29.68,SE,125,0.0,6.0,94,0.00,,,0.05,Wunderground v.1.15,2013-09-22 14:28:00,
2013-09-22 07:31:00,54.4,52.4,29.68,ENE,64,0.0,8.0,93,0.00,,,0.05,Wunderground v.1.15,2013-09-22 14:31:00,
2013-09-22 07:32:00,54.5,52.5,29.68,ENE,64,0.0,8.0,93,0.00,,,0.05,Wunderground v.1.15,2013-09-22 14:32:00,
2013-09-22 07:33:00,54.5,52.5,29.69,ENE,64,0.0,8.0,93,0.00,,,0.05,Wunderground v.1.15,2013-09-22 14:33:00,
2013-09-22 07:37:00,54.6,52.6,29.69,ESE,110,0.0,8.0,93,0.00,,,0.05,Wunderground v.1.15,2013-09-22 14:37:00,
2013-09-22 07:38:00,54.6,52.6,29.69,SE,124,0.0,8.0,93,0.00,,,0.05,Wunderground v.1.15,2013-09-22 14:38:00,
2013-09-22 07:39:00,54.7,52.7,29.68,SE,124,0.0,8.0,93,0.00,,,0.05,Wunderground v.1.15,2013-09-22 14:39:00,
2013-09-22 07:42:00,54.7,52.7,29.69,SSE,149,0.0,6.0,93,0.00,,,0.05,Wunderground v.1.15,2013-09-22 14:42:00,
2013-09-22 07:43:00,54.8,52.8,29.68,SSE,150,0.0,6.0,93,0.00,,,0.05,Wunderground v.1.15,2013-09-22 14:43:00,
2013-09-22 07:44:00,54.8,52.8,29.69,SE,127,2.0,6.0,93,0.00,,,0.05,Wunderground v.1.15,2013-09-22 14:44:00,
2013-09-22 07:47:00,54.9,52.9,29.68,SSE,151,0.0,6.0,93,0.00,,,0.05,Wunderground v.1.15,2013-09-22 14:47:00,
2013-09-22 07:48:00,54.9,52.9,29.68,SSE,152,0.0,6.0,93,0.00,,,0.05,Wunderground v.1.15,2013-09-22 14:48:00,
2013-09-22 07:49:00,54.9,52.9,29.68,SSE,151,0.0,6.0,93,0.00,,,0.05,Wunderground v.1.15,2013-09-22 14:49:00,
2013-09-22 07:50:00,54.9,52.9,29.68,SSE,157,0.0,0.0,93,0.00,,,0.05,Wunderground v.1.15,2013-09-22 14:50:00,
2013-09-22 07:53:00,54.9,52.6,29.68,SSE,164,0.0,5.0,92,0.00,,,0.05,Wunderground v.1.15,2013-09-22 14:53:00,
2013-09-22 07:54:00,54.9,52.6,29.68,SSE,164,0.0,5.0,92,0.00,,,0.05,Wunderground v.1.15,2013-09-22 14:54:00,
2013-09-22 07:55:00,54.9,52.6,29.68,SSE,163,0.0,5.0,92,0.00,,,0.05,Wunderground v.1.15,2013-09-22 14:55:00,
2013-09-22 07:58:00,55.0,52.7,29.68,ESE,107,0.0,5.0,92,0.00,,,0.05,Wunderground v.1.15,2013-09-22 14:58:00,
2013-09-22 08:00:00,55.0,52.7,29.68,ESE,108,0.0,0.0,92,0.00,,,0.05,Wunderground v.1.15,2013-09-22 15:00:00,
2013-09-22 08:03:00,55.0,52.7,29.68,ESE,107,0.0,0.0,92,0.00,,,0.05,Wunderground v.1.15,2013-09-22 15:03:00,
2013-09-22 08:04:00,55.0,52.7,29.68,ESE,108,0.0,0.0,92,0.00,,,0.05,Wunderground v.1.15,2013-09-22 15:04:00,
2013-09-22 08:05:00,55.1,52.8,29.68,ESE,107,0.0,0.0,92,0.00,,,0.05,Wunderground v.1.15,2013-09-22 15:05:00,
2013-09-22 08:06:00,55.1,52.5,29.68,ESE,107,0.0,1.0,91,0.00,,,0.05,Wunderground v.1.15,2013-09-22 15:06:00,
2013-09-22 08:08:00,55.1,52.5,29.68,SE,139,5.0,6.0,91,0.00,,,0.05,Wunderground v.1.15,2013-09-22 15:08:00,
2013-09-22 08:09:00,55.1,52.5,29.68,SE,138,0.0,6.0,91,0.00,,,0.05,Wunderground v.1.15,2013-09-22 15:09:00,
2013-09-22 08:10:00,55.2,52.6,29.68,SE,138,0.0,0.0,91,0.00,,,0.05,Wunderground v.1.15,2013-09-22 15:10:00,
2013-09-22 08:11:00,55.3,52.7,29.68,SE,138,0.0,2.0,91,0.00,,,0.05,Wunderground v.1.15,2013-09-22 15:11:00,
2013-09-22 08:13:00,55.3,52.7,29.68,ENE,60,0.0,2.0,91,0.00,,,0.05,Wunderground v.1.15,2013-09-22 15:13:00,
2013-09-22 08:14:00,55.3,52.4,29.68,ENE,61,0.0,2.0,90,0.00,,,0.05,Wunderground v.1.15,2013-09-22 15:14:00,
2013-09-22 08:16:00,55.3,52.4,29.68,East,101,0.0,2.0,90,0.00,,,0.05,Wunderground v.1.15,2013-09-22 15:16:00,
2013-09-22 08:18:00,55.4,52.5,29.68,ESE,103,0.0,2.0,90,0.00,,,0.05,Wunderground v.1.15,2013-09-22 15:18:00,
2013-09-22 08:19:00,55.4,52.2,29.68,SE,132,4.0,7.0,89,0.00,,,0.05,Wunderground v.1.15,2013-09-22 15:19:00,
2013-09-22 08:21:00,55.5,52.3,29.67,East,83,0.0,0.0,89,0.00,,,0.05,Wunderground v.1.15,2013-09-22 15:21:00,
2013-09-22 08:22:00,55.5,52.3,29.68,East,83,0.0,0.0,89,0.00,,,0.05,Wunderground v.1.15,2013-09-22 15:22:00,
2013-09-22 08:23:00,55.6,52.4,29.68,East,83,0.0,0.0,89,0.00,,,0.05,Wunderground v.1.15,2013-09-22 15:23:00,
2013-09-22 08:25:00,55.6,52.4,29.67,ESE,117,2.0,5.0,89,0.00,,,0.05,Wunderground v.1.15,2013-09-22 15:25:00,
2013-09-22 08:26:00,55.6,52.4,29.67,SE,134,0.0,6.0,89,0.00,,,0.05,Wunderground v.1.15,2013-09-22 15:26:00,
2013-09-22 08:27:00,55.7,52.5,29.67,SE,134,0.0,6.0,89,0.00,,,0.05,Wunderground v.1.15,2013-09-22 15:27:00,
2013-09-22 08:28:00,55.7,52.5,29.67,SE,134,0.0,6.0,89,0.00,,,0.05,Wunderground v.1.15,2013-09-22 15:28:00,
2013-09-22 08:30:00,55.7,52.5,29.67,SE,139,0.0,1.0,89,0.00,,,0.05,Wunderground v.1.15,2013-09-22 15:30:00,
2013-09-22 08:31:00,55.7,52.5,29.67,SE,138,0.0,1.0,89,0.00,,,0.05,Wunderground v.1.15,2013-09-22 15:31:00,
2013-09-22 08:32:00,55.7,52.5,29.67,SE,139,0.0,1.0,89,0.00,,,0.05,Wunderground v.1.15,2013-09-22 15:32:00,
2013-09-22 08:33:00,55.8,52.6,29.67,ESE,122,0.0,1.0,89,0.00,,,0.05,Wunderground v.1.15,2013-09-22 15:33:00,
2013-09-22 08:35:00,55.8,52.6,29.67,SE,125,0.0,1.0,89,0.00,,,0.05,Wunderground v.1.15,2013-09-22 15:35:00,
2013-09-22 08:36:00,55.8,52.6,29.67,SE,126,0.0,1.0,89,0.00,,,0.05,Wunderground v.1.15,2013-09-22 15:36:00,
2013-09-22 08:37:00,55.8,52.6,29.67,SE,125,0.0,1.0,89,0.00,,,0.05,Wunderground v.1.15,2013-09-22 15:37:00,
2013-09-22 08:38:00,55.8,52.6,29.67,SE,125,6.0,6.0,89,0.00,,,0.05,Wunderground v.1.15,2013-09-22 15:38:00,
2013-09-22 08:39:00,55.8,52.6,29.67,SE,140,1.0,6.0,89,0.00,,,0.05,Wunderground v.1.15,2013-09-22 15:39:00,
2013-09-22 08:40:00,55.8,52.3,29.67,SE,135,0.0,1.0,88,0.00,,,0.05,Wunderground v.1.15,2013-09-22 15:40:00,
2013-09-22 08:41:00,55.8,52.3,29.67,SE,135,0.0,1.0,88,0.00,,,0.05,Wunderground v.1.15,2013-09-22 15:41:00,
2013-09-22 08:42:00,55.8,52.3,29.67,SE,135,0.0,1.0,88,0.00,,,0.05,Wunderground v.1.15,2013-09-22 15:42:00,
2013-09-22 08:43:00,55.8,52.3,29.67,SE,134,1.0,1.0,88,0.00,,,0.05,Wunderground v.1.15,2013-09-22 15:43:00,
2013-09-22 08:44:00,55.7,52.2,29.67,SE,142,5.0,7.0,88,0.00,,,0.06,Wunderground v.1.15,2013-09-22 15:44:00,
2013-09-22 08:45:00,55.7,52.2,29.68,ESE,107,0.0,7.0,88,0.00,,,0.06,Wunderground v.1.15,2013-09-22 15:45:00,
2013-09-22 08:46:00,55.7,52.5,29.68,ESE,106,0.0,7.0,89,0.00,,,0.06,Wunderground v.1.15,2013-09-22 15:46:00,
2013-09-22 08:47:00,55.7,52.5,29.68,ESE,107,0.0,7.0,89,0.00,,,0.06,Wunderground v.1.15,2013-09-22 15:47:00,
2013-09-22 08:48:00,55.7,52.5,29.67,ESE,107,0.0,7.0,89,0.00,,,0.06,Wunderground v.1.15,2013-09-22 15:48:00,
2013-09-22 08:49:00,55.6,52.4,29.67,ESE,108,0.0,7.0,89,0.00,,,0.06,Wunderground v.1.15,2013-09-22 15:49:00,
2013-09-22 08:51:00,55.6,52.7,29.67,ESE,106,0.0,1.0,90,0.00,,,0.06,Wunderground v.1.15,2013-09-22 15:51:00,
2013-09-22 08:52:00,55.5,52.6,29.67,ENE,72,0.0,1.0,90,0.00,,,0.06,Wunderground v.1.15,2013-09-22 15:52:00,
2013-09-22 08:53:00,55.5,52.6,29.67,ENE,58,0.0,1.0,90,0.00,,,0.06,Wunderground v.1.15,2013-09-22 15:53:00,
2013-09-22 08:54:00,55.5,52.6,29.67,ENE,57,0.0,1.0,90,0.00,,,0.06,Wunderground v.1.15,2013-09-22 15:54:00,
2013-09-22 08:56:00,55.4,52.5,29.67,ESE,112,1.0,3.0,90,0.00,,,0.06,Wunderground v.1.15,2013-09-22 15:56:00,
2013-09-22 08:58:00,55.3,52.4,29.67,SSE,162,0.0,4.0,90,0.00,,,0.06,Wunderground v.1.15,2013-09-22 15:58:00,
2013-09-22 08:59:00,55.3,52.4,29.67,SSE,162,0.0,4.0,90,0.00,,,0.06,Wunderground v.1.15,2013-09-22 15:59:00,
2013-09-22 09:03:00,55.1,52.2,29.66,SE,127,0.0,5.0,90,0.00,,,0.06,Wunderground v.1.15,2013-09-22 16:03:00,
2013-09-22 09:04:00,55.1,52.2,29.66,SE,128,0.0,5.0,90,0.00,,,0.06,Wunderground v.1.15,2013-09-22 16:04:00,
2013-09-22 09:08:00,55.2,52.3,29.66,SE,125,0.0,7.0,90,0.00,,,0.06,Wunderground v.1.15,2013-09-22 16:08:00,
2013-09-22 09:09:00,55.2,52.3,29.66,SE,126,0.0,7.0,90,0.00,,,0.06,Wunderground v.1.15,2013-09-22 16:09:00,
2013-09-22 09:14:00,55.3,52.7,29.66,South,189,0.0,2.0,91,0.00,,,0.06,Wunderground v.1.15,2013-09-22 16:14:00,
2013-09-22 09:15:00,55.3,52.7,29.66,South,189,0.0,2.0,91,0.00,,,0.06,Wunderground v.1.15,2013-09-22 16:15:00,
2013-09-22 09:19:00,55.4,52.8,29.66,South,189,0.0,2.0,91,0.00,,,0.06,Wunderground v.1.15,2013-09-22 16:19:00,
2013-09-22 09:20:00,55.4,52.8,29.65,South,190,0.0,0.0,91,0.00,,,0.06,Wunderground v.1.15,2013-09-22 16:20:00,
2013-09-22 09:24:00,55.5,52.6,29.65,SE,133,0.0,1.0,90,0.00,,,0.06,Wunderground v.1.15,2013-09-22 16:24:00,
2013-09-22 09:25:00,55.5,52.6,29.65,SE,146,0.0,4.0,90,0.00,,,0.06,Wunderground v.1.15,2013-09-22 16:25:00,
2013-09-22 09:29:00,55.8,53.2,29.65,ESE,110,0.0,4.0,91,0.00,,,0.06,Wunderground v.1.15,2013-09-22 16:29:00,
2013-09-22 09:30:00,55.8,53.2,29.65,East,101,0.0,0.0,91,0.00,,,0.06,Wunderground v.1.15,2013-09-22 16:30:00,
2013-09-22 09:34:00,56.1,52.3,29.65,SSE,163,0.0,6.0,87,0.00,,,0.06,Wunderground v.1.15,2013-09-22 16:34:00,
2013-09-22 09:35:00,56.2,52.4,29.65,SSE,163,0.0,6.0,87,0.00,,,0.06,Wunderground v.1.15,2013-09-22 16:35:00,
2013-09-22 09:36:00,56.3,52.5,29.64,SE,127,5.0,6.0,87,0.00,,,0.06,Wunderground v.1.15,2013-09-22 16:36:00,
2013-09-22 09:39:00,56.6,52.5,29.64,SSE,150,0.0,9.0,86,0.00,,,0.06,Wunderground v.1.15,2013-09-22 16:39:00,
2013-09-22 09:40:00,56.6,52.5,29.64,SSE,149,0.0,1.0,86,0.00,,,0.06,Wunderground v.1.15,2013-09-22 16:40:00,
2013-09-22 09:41:00,56.6,52.8,29.64,SE,136,0.0,1.0,87,0.00,,,0.06,Wunderground v.1.15,2013-09-22 16:41:00,
2013-09-22 09:45:00,56.9,53.1,29.64,ENE,65,0.0,2.0,87,0.00,,,0.06,Wunderground v.1.15,2013-09-22 16:45:00,
2013-09-22 09:46:00,56.9,53.1,29.64,ENE,63,0.0,4.0,87,0.00,,,0.06,Wunderground v.1.15,2013-09-22 16:46:00,
2013-09-22 09:47:00,56.9,52.4,29.64,SE,125,0.0,4.0,85,0.00,,,0.06,Wunderground v.1.15,2013-09-22 16:47:00,
2013-09-22 09:50:00,57.0,51.6,29.64,SE,138,0.0,1.0,82,0.00,,,0.06,Wunderground v.1.15,2013-09-22 16:50:00,
2013-09-22 09:51:00,57.0,51.9,29.64,SE,139,0.0,1.0,83,0.00,,,0.06,Wunderground v.1.15,2013-09-22 16:51:00,
2013-09-22 09:53:00,57.1,52.0,29.64,NE,34,0.0,4.0,83,0.00,,,0.06,Wunderground v.1.15,2013-09-22 16:53:00,
2013-09-22 09:55:00,57.3,52.8,29.63,East,86,0.0,4.0,85,0.00,,,0.06,Wunderground v.1.15,2013-09-22 16:55:00,
2013-09-22 09:56:00,57.3,53.1,29.64,East,89,0.0,4.0,86,0.00,,,0.06,Wunderground v.1.15,2013-09-22 16:56:00,
2013-09-22 09:58:00,57.3,52.2,29.64,ESE,102,0.0,6.0,83,0.00,,,0.06,Wunderground v.1.15,2013-09-22 16:58:00,
2013-09-22 10:00:00,57.3,52.2,29.64,ESE,103,0.0,0.0,83,0.00,,,0.06,Wunderground v.1.15,2013-09-22 17:00:00,
2013-09-22 10:01:00,57.3,52.2,29.63,ESE,113,0.0,0.0,83,0.00,,,0.06,Wunderground v.1.15,2013-09-22 17:01:00,
2013-09-22 10:03:00,57.3,52.5,29.64,ESE,112,0.0,1.0,84,0.00,,,0.06,Wunderground v.1.15,2013-09-22 17:03:00,
2013-09-22 10:05:00,57.3,52.2,29.64,ESE,114,0.0,4.0,83,0.00,,,0.06,Wunderground v.1.15,2013-09-22 17:05:00,
2013-09-22 10:06:00,57.3,52.2,29.63,ESE,114,0.0,4.0,83,0.00,,,0.06,Wunderground v.1.15,2013-09-22 17:06:00,
2013-09-22 10:08:00,57.3,51.9,29.64,ESE,114,0.0,4.0,82,0.00,,,0.06,Wunderground v.1.15,2013-09-22 17:08:00,
2013-09-22 10:11:00,57.4,52.3,29.64,ESE,114,0.0,1.0,83,0.00,,,0.06,Wunderground v.1.15,2013-09-22 17:11:00,
2013-09-22 10:12:00,57.4,52.6,29.63,NNE,24,2.0,4.0,84,0.00,,,0.06,Wunderground v.1.15,2013-09-22 17:12:00,
2013-09-22 10:13:00,57.4,51.6,29.63,NNE,24,0.0,4.0,81,0.00,,,0.06,Wunderground v.1.15,2013-09-22 17:13:00,
2013-09-22 10:16:00,57.5,51.7,29.63,NE,49,0.0,10.0,81,0.00,,,0.06,Wunderground v.1.15,2013-09-22 17:16:00,
2013-09-22 10:17:00,57.6,51.8,29.63,NE,49,0.0,10.0,81,0.00,,,0.06,Wunderground v.1.15,2013-09-22 17:17:00,
2013-09-22 10:18:00,57.6,52.1,29.63,SE,136,5.0,10.0,82,0.00,,,0.06,Wunderground v.1.15,2013-09-22 17:18:00,
2013-09-22 10:21:00,57.6,51.5,29.63,SE,127,0.0,4.0,80,0.00,,,0.06,Wunderground v.1.15,2013-09-22 17:21:00,
2013-09-22 10:22:00,57.7,51.2,29.62,SE,131,1.0,4.0,79,0.00,,,0.06,Wunderground v.1.15,2013-09-22 17:22:00,
2013-09-22 10:24:00,57.8,51.7,29.62,ESE,117,0.0,6.0,80,0.00,,,0.06,Wunderground v.1.15,2013-09-22 17:24:00,
2013-09-22 10:26:00,57.9,52.1,29.62,NNE,32,0.0,6.0,81,0.00,,,0.06,Wunderground v.1.15,2013-09-22 17:26:00,
2013-09-22 10:27:00,58.0,52.2,29.62,NW,326,2.0,6.0,81,0.00,,,0.06,Wunderground v.1.15,2013-09-22 17:27:00,
2013-09-22 10:29:00,58.0,51.2,29.62,SSE,160,0.0,6.0,78,0.00,,,0.06,Wunderground v.1.15,2013-09-22 17:29:00,
2013-09-22 10:31:00,58.2,51.7,29.62,NE,39,0.0,2.0,79,0.00,,,0.06,Wunderground v.1.15,2013-09-22 17:31:00,
2013-09-22 10:32:00,58.3,51.8,29.61,NE,39,0.0,2.0,79,0.00,,,0.06,Wunderground v.1.15,2013-09-22 17:32:00,
2013-09-22 10:33:00,58.5,52.0,29.62,NE,46,1.0,7.0,79,0.00,,,0.06,Wunderground v.1.15,2013-09-22 17:33:00,
2013-09-22 10:35:00,58.7,51.9,29.61,ESE,109,0.0,7.0,78,0.00,,,0.06,Wunderground v.1.15,2013-09-22 17:35:00,
2013-09-22 10:36:00,59.0,52.1,29.61,North,5,0.0,7.0,78,0.00,,,0.06,Wunderground v.1.15,2013-09-22 17:36:00,
2013-09-22 10:37:00,59.1,52.2,29.61,NNW,335,1.0,7.0,78,0.00,,,0.06,Wunderground v.1.15,2013-09-22 17:37:00,
2013-09-22 10:39:00,59.3,52.1,29.61,South,189,2.0,8.0,77,0.00,,,0.06,Wunderground v.1.15,2013-09-22 17:39:00,
2013-09-22 10:40:00,59.3,51.4,29.60,ESE,123,0.0,1.0,75,0.00,,,0.06,Wunderground v.1.15,2013-09-22 17:40:00,
2013-09-22 10:42:00,59.5,51.9,29.61,ESE,123,0.0,1.0,76,0.00,,,0.06,Wunderground v.1.15,2013-09-22 17:42:00,
2013-09-22 10:44:00,59.7,52.1,29.60,ESE,122,0.0,1.0,76,0.00,,,0.06,Wunderground v.1.15,2013-09-22 17:44:00,
2013-09-22 10:45:00,59.8,52.6,29.60,East,93,1.0,1.0,77,0.00,,,0.06,Wunderground v.1.15,2013-09-22 17:45:00,
2013-09-22 10:47:00,59.9,52.0,29.61,SE,145,0.0,2.0,75,0.00,,,0.06,Wunderground v.1.15,2013-09-22 17:47:00,
2013-09-22 10:49:00,60.1,51.4,29.60,SSE,149,6.0,7.0,73,0.00,,,0.06,Wunderground v.1.15,2013-09-22 17:49:00,
2013-09-22 10:51:00,60.1,51.0,29.60,ESE,123,4.0,6.0,72,0.00,,,0.06,Wunderground v.1.15,2013-09-22 17:51:00,
2013-09-22 10:52:00,60.2,51.1,29.60,NE,49,0.0,6.0,72,0.00,,,0.06,Wunderground v.1.15,2013-09-22 17:52:00,
2013-09-22 10:54:00,60.3,51.6,29.60,NNE,30,0.0,6.0,73,0.00,,,0.06,Wunderground v.1.15,2013-09-22 17:54:00,
2013-09-22 10:56:00,60.3,51.2,29.60,East,91,0.0,6.0,72,0.00,,,0.06,Wunderground v.1.15,2013-09-22 17:56:00,
2013-09-22 10:57:00,60.3,51.2,29.60,SE,140,0.0,6.0,72,0.00,,,0.06,Wunderground v.1.15,2013-09-22 17:57:00,
2013-09-22 11:00:00,60.3,51.6,29.60,SE,139,1.0,6.0,73,0.00,,,0.06,Wunderground v.1.15,2013-09-22 18:00:00,
2013-09-22 11:02:00,60.2,50.0,29.60,ESE,120,5.0,6.0,69,0.00,,,0.06,Wunderground v.1.15,2013-09-22 18:02:00,
2013-09-22 11:03:00,60.2,50.4,29.60,SE,135,0.0,6.0,70,0.00,,,0.06,Wunderground v.1.15,2013-09-22 18:03:00,
2013-09-22 11:05:00,60.3,51.2,29.60,ESE,120,0.0,8.0,72,0.00,,,0.06,Wunderground v.1.15,2013-09-22 18:05:00,
2013-09-22 11:07:00,60.3,50.9,29.60,ENE,68,0.0,8.0,71,0.00,,,0.06,Wunderground v.1.15,2013-09-22 18:07:00,
2013-09-22 11:08:00,60.3,51.2,29.60,SE,124,1.0,8.0,72,0.00,,,0.06,Wunderground v.1.15,2013-09-22 18:08:00,
2013-09-22 11:10:00,60.3,50.1,29.60,NE,51,0.0,5.0,69,0.00,,,0.06,Wunderground v.1.15,2013-09-22 18:10:00,
2013-09-22 11:12:00,60.3,50.1,29.59,SE,141,0.0,5.0,69,0.00,,,0.06,Wunderground v.1.15,2013-09-22 18:12:00,
2013-09-22 11:13:00,60.4,51.3,29.59,SE,130,1.0,7.0,72,0.00,,,0.06,Wunderground v.1.15,2013-09-22 18:13:00,
2013-09-22 11:15:00,60.4,51.7,29.59,ESE,123,1.0,7.0,73,0.00,,,0.06,Wunderground v.1.15,2013-09-22 18:15:00,
2013-09-22 11:17:00,60.4,51.7,29.59,ESE,123,0.0,7.0,73,0.00,,,0.06,Wunderground v.1.15,2013-09-22 18:17:00,
2013-09-22 11:18:00,60.4,51.7,29.59,ESE,123,0.0,7.0,73,0.00,,,0.06,Wunderground v.1.15,2013-09-22 18:18:00,
2013-09-22 11:21:00,60.3,50.9,29.59,ESE,109,1.0,6.0,71,0.00,,,0.06,Wunderground v.1.15,2013-09-22 18:21:00,
2013-09-22 11:23:00,60.2,50.4,29.59,SE,137,0.0,9.0,70,0.00,,,0.06,Wunderground v.1.15,2013-09-22 18:23:00,
2013-09-22 11:26:00,60.1,51.0,29.59,SE,137,0.0,9.0,72,0.00,,,0.06,Wunderground v.1.15,2013-09-22 18:26:00,
2013-09-22 11:28:00,60.1,51.0,29.59,SE,138,0.0,9.0,72,0.00,,,0.06,Wunderground v.1.15,2013-09-22 18:28:00,
2013-09-22 11:29:00,60.1,51.0,29.59,SE,138,0.0,9.0,72,0.00,,,0.06,Wunderground v.1.15,2013-09-22 18:29:00,
2013-09-22 11:32:00,60.0,50.9,29.59,ESE,120,0.0,2.0,72,0.00,,,0.06,Wunderground v.1.15,2013-09-22 18:32:00,
2013-09-22 11:33:00,60.0,51.3,29.59,ESE,120,0.0,2.0,73,0.00,,,0.06,Wunderground v.1.15,2013-09-22 18:33:00,
2013-09-22 11:34:00,60.0,50.9,29.59,ESE,120,0.0,4.0,72,0.00,,,0.06,Wunderground v.1.15,2013-09-22 18:34:00,
2013-09-22 11:37:00,59.8,50.8,29.58,SE,132,1.0,7.0,72,0.00,,,0.06,Wunderground v.1.15,2013-09-22 18:37:00,
2013-09-22 11:38:00,59.8,50.8,29.58,South,181,1.0,7.0,72,0.00,,,0.06,Wunderground v.1.15,2013-09-22 18:38:00,
2013-09-22 11:39:00,59.7,50.7,29.58,South,181,0.0,7.0,72,0.00,,,0.06,Wunderground v.1.15,2013-09-22 18:39:00,
2013-09-22 11:42:00,59.6,51.3,29.58,South,182,0.0,0.0,74,0.00,,,0.06,Wunderground v.1.15,2013-09-22 18:42:00,
2013-09-22 11:43:00,59.6,51.7,29.58,South,182,0.0,1.0,75,0.00,,,0.06,Wunderground v.1.15,2013-09-22 18:43:00,
2013-09-22 11:44:00,59.5,51.6,29.58,South,181,0.0,1.0,75,0.00,,,0.06,Wunderground v.1.15,2013-09-22 18:44:00,
2013-09-22 11:47:00,59.3,51.7,29.58,South,180,0.0,1.0,76,0.00,,,0.06,Wunderground v.1.15,2013-09-22 18:47:00,
2013-09-22 11:49:00,59.2,50.9,29.58,South,181,0.0,1.0,74,0.00,,,0.06,Wunderground v.1.15,2013-09-22 18:49:00,
2013-09-22 11:53:00,59.0,50.7,29.58,South,180,0.0,1.0,74,0.00,,,0.06,Wunderground v.1.15,2013-09-22 18:53:00,
2013-09-22 11:54:00,58.9,50.6,29.58,North,5,0.0,2.0,74,0.00,,,0.06,Wunderground v.1.15,2013-09-22 18:54:00,
2013-09-22 11:55:00,58.9,51.0,29.58,South,181,0.0,2.0,75,0.00,,,0.06,Wunderground v.1.15,2013-09-22 18:55:00,
2013-09-22 11:58:00,58.7,51.5,29.58,South,181,0.0,2.0,77,0.00,,,0.06,Wunderground v.1.15,2013-09-22 18:58:00,
2013-09-22 11:59:00,58.7,52.2,29.58,South,181,0.0,2.0,79,0.00,,,0.06,Wunderground v.1.15,2013-09-22 18:59:00,
2013-09-22 12:00:00,58.7,52.2,29.58,South,181,0.0,0.0,79,0.00,,,0.06,Wunderground v.1.15,2013-09-22 19:00:00,
2013-09-22 12:03:00,58.5,51.7,29.58,South,181,0.0,0.0,78,0.00,,,0.06,Wunderground v.1.15,2013-09-22 19:03:00,
2013-09-22 12:04:00,58.5,52.0,29.58,South,181,1.0,1.0,79,0.00,,,0.06,Wunderground v.1.15,2013-09-22 19:04:00,
2013-09-22 12:06:00,58.3,52.2,29.58,South,181,0.0,2.0,80,0.00,,,0.06,Wunderground v.1.15,2013-09-22 19:06:00,
2013-09-22 12:09:00,58.2,52.7,29.58,South,181,0.0,2.0,82,0.00,,,0.07,Wunderground v.1.15,2013-09-22 19:09:00,
2013-09-22 12:10:00,58.1,52.6,29.59,South,181,0.0,0.0,82,0.00,,,0.07,Wunderground v.1.15,2013-09-22 19:10:00,
2013-09-22 12:12:00,58.0,52.9,29.59,South,181,1.0,1.0,83,0.00,,,0.07,Wunderground v.1.15,2013-09-22 19:12:00,
2013-09-22 12:14:00,57.8,52.7,29.59,South,182,0.0,1.0,83,0.00,,,0.07,Wunderground v.1.15,2013-09-22 19:14:00,
2013-09-22 12:15:00,57.8,52.7,29.59,South,181,0.0,1.0,83,0.00,,,0.07,Wunderground v.1.15,2013-09-22 19:15:00,
2013-09-22 12:18:00,57.4,52.3,29.59,SE,129,0.0,2.0,83,0.08,,,0.08,Wunderground v.1.15,2013-09-22 19:18:00,
2013-09-22 12:19:00,57.3,52.5,29.59,SE,130,0.0,2.0,84,0.19,,,0.09,Wunderground v.1.15,2013-09-22 19:19:00,
2013-09-22 12:20:00,57.3,52.5,29.58,SE,128,0.0,0.0,84,0.19,,,0.09,Wunderground v.1.15,2013-09-22 19:20:00,
2013-09-22 12:23:00,56.9,52.8,29.59,North,5,0.0,0.0,86,0.28,,,0.11,Wunderground v.1.15,2013-09-22 19:23:00,
2013-09-22 12:24:00,56.7,52.9,29.59,SE,128,0.0,0.0,87,0.28,,,0.11,Wunderground v.1.15,2013-09-22 19:24:00,
2013-09-22 12:25:00,56.7,52.9,29.59,SE,129,0.0,0.0,87,0.37,,,0.12,Wunderground v.1.15,2013-09-22 19:25:00,
2013-09-22 12:28:00,56.2,52.7,29.59,SSE,153,0.0,5.0,88,0.22,,,0.13,Wunderground v.1.15,2013-09-22 19:28:00,
2013-09-22 12:29:00,56.1,52.6,29.59,SSE,150,0.0,5.0,88,0.24,,,0.13,Wunderground v.1.15,2013-09-22 19:29:00,
2013-09-22 12:30:00,56.0,52.5,29.59,SSE,152,0.0,0.0,88,0.24,,,0.14,Wunderground v.1.15,2013-09-22 19:30:00,
2013-09-22 12:33:00,55.7,52.5,29.59,SSE,151,0.0,0.0,89,0.20,,,0.15,Wunderground v.1.15,2013-09-22 19:33:00,
2013-09-22 12:34:00,55.6,52.7,29.59,SSE,152,0.0,0.0,90,0.20,,,0.15,Wunderground v.1.15,2013-09-22 19:34:00,
2013-09-22 12:35:00,55.6,52.7,29.59,SSE,153,0.0,0.0,90,0.20,,,0.15,Wunderground v.1.15,2013-09-22 19:35:00,
2013-09-22 12:38:00,55.3,52.4,29.58,SSE,153,0.0,0.0,90,0.18,,,0.16,Wunderground v.1.15,2013-09-22 19:38:00,
2013-09-22 12:39:00,55.2,52.6,29.59,SSE,153,0.0,0.0,91,0.14,,,0.16,Wunderground v.1.15,2013-09-22 19:39:00,
2013-09-22 12:40:00,55.1,52.5,29.59,SSE,153,0.0,0.0,91,0.11,,,0.16,Wunderground v.1.15,2013-09-22 19:40:00,
2013-09-22 12:41:00,55.1,52.5,29.59,SSE,152,0.0,0.0,91,0.11,,,0.16,Wunderground v.1.15,2013-09-22 19:41:00,
2013-09-22 12:44:00,55.0,52.4,29.58,SSE,152,0.0,0.0,91,0.07,,,0.16,Wunderground v.1.15,2013-09-22 19:44:00,
2013-09-22 12:46:00,54.9,52.6,29.59,SSE,150,0.0,0.0,92,0.06,,,0.16,Wunderground v.1.15,2013-09-22 19:46:00,
2013-09-22 12:49:00,54.8,52.5,29.59,SSE,151,0.0,1.0,92,0.04,,,0.16,Wunderground v.1.15,2013-09-22 19:49:00,
2013-09-22 12:51:00,54.8,52.8,29.59,SSE,149,0.0,0.0,93,0.04,,,0.16,Wunderground v.1.15,2013-09-22 19:51:00,
2013-09-22 12:52:00,54.8,52.8,29.59,SSE,152,0.0,0.0,93,0.04,,,0.16,Wunderground v.1.15,2013-09-22 19:52:00,
2013-09-22 12:54:00,54.7,52.7,29.59,SSE,151,0.0,0.0,93,0.00,,,0.17,Wunderground v.1.15,2013-09-22 19:54:00,
2013-09-22 12:55:00,54.7,52.7,29.59,SSE,153,0.0,0.0,93,0.00,,,0.17,Wunderground v.1.15,2013-09-22 19:55:00,
2013-09-22 12:56:00,54.6,52.6,29.59,SSE,152,0.0,0.0,93,0.00,,,0.17,Wunderground v.1.15,2013-09-22 19:56:00,
2013-09-22 12:57:00,54.6,52.6,29.59,SSE,152,0.0,0.0,93,0.00,,,0.17,Wunderground v.1.15,2013-09-22 19:57:00,
2013-09-22 12:59:00,54.5,52.5,29.59,SSE,151,0.0,0.0,93,0.16,,,0.18,Wunderground v.1.15,2013-09-22 19:59:00,
2013-09-22 13:00:00,54.4,52.4,29.59,SSE,152,0.0,0.0,93,0.16,,,0.18,Wunderground v.1.15,2013-09-22 20:00:00,
2013-09-22 13:01:00,54.4,52.4,29.59,SSE,150,0.0,0.0,93,0.28,,,0.19,Wunderground v.1.15,2013-09-22 20:01:00,
2013-09-22 13:02:00,54.3,52.3,29.59,SSE,153,0.0,0.0,93,0.43,,,0.20,Wunderground v.1.15,2013-09-22 20:02:00,
2013-09-22 13:04:00,54.2,52.2,29.59,SSE,152,0.0,0.0,93,0.37,,,0.21,Wunderground v.1.15,2013-09-22 20:04:00,
2013-09-22 13:05:00,54.2,52.2,29.59,SSE,151,0.0,0.0,93,0.37,,,0.22,Wunderground v.1.15,2013-09-22 20:05:00,
2013-09-22 13:06:00,54.2,52.5,29.59,SSE,150,1.0,2.0,94,0.36,,,0.22,Wunderground v.1.15,2013-09-22 20:06:00,
2013-09-22 13:07:00,54.2,52.5,29.59,SSE,152,1.0,2.0,94,0.24,,,0.22,Wunderground v.1.15,2013-09-22 20:07:00,
2013-09-22 13:10:00,54.2,52.5,29.59,SSE,154,0.0,0.0,94,0.17,,,0.23,Wunderground v.1.15,2013-09-22 20:10:00,
2013-09-22 13:12:00,54.2,52.5,29.59,SSE,153,0.0,0.0,94,0.28,,,0.24,Wunderground v.1.15,2013-09-22 20:12:00,
2013-09-22 13:13:00,54.2,52.5,29.59,SSE,152,0.0,0.0,94,0.27,,,0.25,Wunderground v.1.15,2013-09-22 20:13:00,
2013-09-22 13:15:00,54.2,52.5,29.59,SSE,152,0.0,0.0,94,0.27,,,0.25,Wunderground v.1.15,2013-09-22 20:15:00,
2013-09-22 13:17:00,54.1,52.4,29.59,SSE,152,0.0,0.0,94,0.16,,,0.26,Wunderground v.1.15,2013-09-22 20:17:00,
2013-09-22 13:18:00,54.1,52.4,29.59,SSE,151,0.0,0.0,94,0.16,,,0.26,Wunderground v.1.15,2013-09-22 20:18:00,
2013-09-22 13:20:00,54.1,52.4,29.58,SSE,153,0.0,0.0,94,0.15,,,0.26,Wunderground v.1.15,2013-09-22 20:20:00,
2013-09-22 13:23:00,54.1,52.7,29.59,SSE,152,0.0,1.0,95,0.13,,,0.27,Wunderground v.1.15,2013-09-22 20:23:00,
2013-09-22 13:24:00,54.1,52.7,29.59,North,5,0.0,1.0,95,0.13,,,0.27,Wunderground v.1.15,2013-09-22 20:24:00,
2013-09-22 13:25:00,54.1,52.7,29.59,SSE,160,1.0,1.0,95,0.40,,,0.29,Wunderground v.1.15,2013-09-22 20:25:00,
2013-09-22 13:28:00,54.0,52.6,29.59,SSE,162,0.0,1.0,95,0.38,,,0.30,Wunderground v.1.15,2013-09-22 20:28:00,
2013-09-22 13:30:00,54.0,52.6,29.59,SSE,160,0.0,1.0,95,0.54,,,0.32,Wunderground v.1.15,2013-09-22 20:30:00,
2013-09-22 13:31:00,54.0,52.6,29.59,SSE,162,0.0,1.0,95,0.54,,,0.32,Wunderground v.1.15,2013-09-22 20:31:00,
2013-09-22 13:33:00,53.9,52.5,29.59,ESE,123,0.0,4.0,95,0.54,,,0.34,Wunderground v.1.15,2013-09-22 20:33:00,
2013-09-22 13:35:00,53.9,52.5,29.59,ESE,109,0.0,4.0,95,0.54,,,0.36,Wunderground v.1.15,2013-09-22 20:35:00,
2013-09-22 13:36:00,53.9,52.5,29.59,ESE,107,0.0,4.0,95,0.55,,,0.36,Wunderground v.1.15,2013-09-22 20:36:00,
2013-09-22 13:38:00,53.8,52.4,29.59,SE,145,0.0,4.0,95,0.38,,,0.39,Wunderground v.1.15,2013-09-22 20:38:00,
2013-09-22 13:40:00,53.8,52.4,29.59,SE,131,0.0,1.0,95,0.38,,,0.40,Wunderground v.1.15,2013-09-22 20:40:00,
2013-09-22 13:41:00,53.8,52.4,29.59,SE,131,0.0,1.0,95,0.36,,,0.40,Wunderground v.1.15,2013-09-22 20:41:00,
2013-09-22 13:44:00,53.8,52.4,29.59,SE,131,0.0,4.0,95,0.19,,,0.41,Wunderground v.1.15,2013-09-22 20:44:00,
2013-09-22 13:46:00,53.8,52.4,29.59,SE,132,1.0,4.0,95,0.19,,,0.41,Wunderground v.1.15,2013-09-22 20:46:00,
2013-09-22 13:47:00,53.8,52.4,29.59,SE,132,0.0,4.0,95,0.15,,,0.41,Wunderground v.1.15,2013-09-22 20:47:00,
2013-09-22 13:49:00,53.9,52.5,29.59,ESE,103,1.0,4.0,95,0.15,,,0.42,Wunderground v.1.15,2013-09-22 20:49:00,
2013-09-22 13:51:00,53.9,52.5,29.59,ESE,104,0.0,1.0,95,0.15,,,0.42,Wunderground v.1.15,2013-09-22 20:51:00,
2013-09-22 13:52:00,53.9,52.5,29.59,ESE,102,0.0,1.0,95,0.12,,,0.42,Wunderground v.1.15,2013-09-22 20:52:00,
2013-09-22 13:54:00,53.9,52.5,29.59,SW,231,0.0,1.0,95,0.10,,,0.43,Wunderground v.1.15,2013-09-22 20:54:00,
2013-09-22 13:56:00,53.9,52.5,29.60,SSW,199,2.0,5.0,95,0.10,,,0.43,Wunderground v.1.15,2013-09-22 20:56:00,
2013-09-22 13:57:00,53.9,52.5,29.60,North,5,0.0,5.0,95,0.10,,,0.43,Wunderground v.1.15,2013-09-22 20:57:00,
2013-09-22 13:59:00,53.9,52.5,29.59,SE,144,0.0,5.0,95,0.09,,,0.43,Wunderground v.1.15,2013-09-22 20:59:00,
2013-09-22 14:02:00,54.0,52.9,29.59,SE,143,0.0,1.0,96,0.08,,,0.44,Wunderground v.1.15,2013-09-22 21:02:00,
2013-09-22 14:04:00,54.0,52.9,29.58,SSE,148,4.0,5.0,96,0.08,,,0.44,Wunderground v.1.15,2013-09-22 21:04:00,
2013-09-22 14:07:00,54.0,52.9,29.59,SSE,152,0.0,5.0,96,0.08,,,0.44,Wunderground v.1.15,2013-09-22 21:07:00,
2013-09-22 14:08:00,54.1,53.0,29.58,SSE,151,0.0,5.0,96,0.08,,,0.44,Wunderground v.1.15,2013-09-22 21:08:00,
2013-09-22 14:09:00,54.1,53.0,29.59,ESE,115,0.0,5.0,96,0.06,,,0.44,Wunderground v.1.15,2013-09-22 21:09:00,
2013-09-22 14:12:00,54.1,53.0,29.58,SW,219,2.0,5.0,96,0.05,,,0.44,Wunderground v.1.15,2013-09-22 21:12:00,
2013-09-22 14:13:00,54.2,53.1,29.59,SE,143,4.0,5.0,96,0.05,,,0.44,Wunderground v.1.15,2013-09-22 21:13:00,
2013-09-22 14:14:00,54.2,53.1,29.59,SSE,151,0.0,5.0,96,0.04,,,0.44,Wunderground v.1.15,2013-09-22 21:14:00,
2013-09-22 14:17:00,54.4,53.3,29.59,ENE,75,1.0,5.0,96,0.04,,,0.44,Wunderground v.1.15,2013-09-22 21:17:00,
2013-09-22 14:18:00,54.4,53.3,29.59,NE,42,0.0,5.0,96,0.00,,,0.44,Wunderground v.1.15,2013-09-22 21:18:00,
2013-09-22 14:19:00,54.5,53.4,29.59,SE,127,0.0,5.0,96,0.00,,,0.44,Wunderground v.1.15,2013-09-22 21:19:00,
2013-09-22 14:22:00,54.7,53.6,29.59,North,5,0.0,2.0,96,0.00,,,0.44,Wunderground v.1.15,2013-09-22 21:22:00,
2013-09-22 14:23:00,54.7,53.6,29.59,ESE,116,0.0,2.0,96,0.00,,,0.44,Wunderground v.1.15,2013-09-22 21:23:00,
2013-09-22 14:25:00,54.8,53.7,29.59,ESE,120,0.0,2.0,96,0.00,,,0.44,Wunderground v.1.15,2013-09-22 21:25:00,
2013-09-22 14:27:00,55.0,53.9,29.59,SSE,147,1.0,6.0,96,0.00,,,0.44,Wunderground v.1.15,2013-09-22 21:27:00,
2013-09-22 14:28:00,55.0,53.9,29.59,SE,146,0.0,6.0,96,0.00,,,0.44,Wunderground v.1.15,2013-09-22 21:28:00,
2013-09-22 14:29:00,55.1,54.0,29.59,East,92,6.0,6.0,96,0.00,,,0.44,Wunderground v.1.15,2013-09-22 21:29:00,
2013-09-22 14:30:00,55.1,54.0,29.59,ESE,119,6.0,7.0,96,0.00,,,0.44,Wunderground v.1.15,2013-09-22 21:30:00,
2013-09-22 14:32:00,55.3,54.2,29.59,SE,146,1.0,7.0,96,0.00,,,0.44,Wunderground v.1.15,2013-09-22 21:32:00,
2013-09-22 14:33:00,55.4,54.3,29.59,SE,126,6.0,18.0,96,0.00,,,0.44,Wunderground v.1.15,2013-09-22 21:33:00,
2013-09-22 14:34:00,55.5,54.4,29.59,SSE,154,0.0,18.0,96,0.00,,,0.44,Wunderground v.1.15,2013-09-22 21:34:00,
2013-09-22 14:35:00,55.7,54.6,29.59,SE,126,0.0,18.0,96,0.00,,,0.44,Wunderground v.1.15,2013-09-22 21:35:00,
2013-09-22 14:37:00,56.0,54.9,29.59,ESE,120,0.0,18.0,96,0.00,,,0.44,Wunderground v.1.15,2013-09-22 21:37:00,
2013-09-22 14:38:00,56.2,55.4,29.59,SE,124,1.0,18.0,97,0.00,,,0.44,Wunderground v.1.15,2013-09-22 21:38:00,
2013-09-22 14:39:00,56.3,55.5,29.59,East,93,1.0,18.0,97,0.00,,,0.44,Wunderground v.1.15,2013-09-22 21:39:00,
2013-09-22 14:40:00,56.6,55.5,29.59,SE,135,6.0,7.0,96,0.00,,,0.44,Wunderground v.1.15,2013-09-22 21:40:00,
2013-09-22 14:42:00,57.0,56.2,29.59,ESE,121,0.0,7.0,97,0.00,,,0.44,Wunderground v.1.15,2013-09-22 21:42:00,
2013-09-22 14:43:00,57.3,56.5,29.59,ENE,69,0.0,7.0,97,0.00,,,0.44,Wunderground v.1.15,2013-09-22 21:43:00,
2013-09-22 14:44:00,57.3,56.5,29.59,ENE,69,0.0,7.0,97,0.00,,,0.44,Wunderground v.1.15,2013-09-22 21:44:00,
2013-09-22 14:45:00,57.4,56.6,29.58,ENE,69,0.0,7.0,97,0.00,,,0.44,Wunderground v.1.15,2013-09-22 21:45:00,
2013-09-22 14:47:00,57.7,56.9,29.58,SSE,166,0.0,7.0,97,0.00,,,0.44,Wunderground v.1.15,2013-09-22 21:47:00,
2013-09-22 14:49:00,57.7,56.9,29.58,ESE,118,2.0,7.0,97,0.00,,,0.44,Wunderground v.1.15,2013-09-22 21:49:00,
2013-09-22 14:50:00,57.7,56.6,29.58,ESE,122,4.0,5.0,96,0.00,,,0.44,Wunderground v.1.15,2013-09-22 21:50:00,
2013-09-22 14:52:00,57.6,56.5,29.58,SE,134,0.0,5.0,96,0.00,,,0.44,Wunderground v.1.15,2013-09-22 21:52:00,
2013-09-22 14:54:00,57.6,56.5,29.58,East,94,1.0,5.0,96,0.00,,,0.44,Wunderground v.1.15,2013-09-22 21:54:00,
2013-09-22 14:56:00,57.7,56.6,29.59,ESE,103,0.0,5.0,96,0.00,,,0.44,Wunderground v.1.15,2013-09-22 21:56:00,
2013-09-22 14:57:00,57.7,56.6,29.59,SE,130,2.0,5.0,96,0.00,,,0.44,Wunderground v.1.15,2013-09-22 21:57:00,
2013-09-22 14:59:00,57.7,56.3,29.59,SE,124,1.0,7.0,95,0.00,,,0.44,Wunderground v.1.15,2013-09-22 21:59:00,
2013-09-22 15:01:00,57.6,56.2,29.59,East,99,0.0,9.0,95,0.00,,,0.44,Wunderground v.1.15,2013-09-22 22:01:00,
2013-09-22 15:02:00,57.5,56.1,29.59,ENE,68,5.0,14.0,95,0.00,,,0.44,Wunderground v.1.15,2013-09-22 22:02:00,
2013-09-22 15:05:00,57.4,55.7,29.59,SSE,158,0.0,14.0,94,0.00,,,0.44,Wunderground v.1.15,2013-09-22 22:05:00,
2013-09-22 15:06:00,57.4,55.7,29.58,NE,52,0.0,14.0,94,0.00,,,0.44,Wunderground v.1.15,2013-09-22 22:06:00,
2013-09-22 15:07:00,57.5,56.1,29.58,ESE,119,0.0,14.0,95,0.00,,,0.44,Wunderground v.1.15,2013-09-22 22:07:00,
2013-09-22 15:10:00,57.5,55.8,29.58,ESE,119,0.0,2.0,94,0.00,,,0.44,Wunderground v.1.15,2013-09-22 22:10:00,
2013-09-22 15:11:00,57.6,55.9,29.58,SSE,152,9.0,10.0,94,0.00,,,0.44,Wunderground v.1.15,2013-09-22 22:11:00,
2013-09-22 15:13:00,57.6,55.9,29.58,East,98,6.0,10.0,94,0.00,,,0.44,Wunderground v.1.15,2013-09-22 22:13:00,
2013-09-22 15:15:00,57.6,55.6,29.58,ESE,121,0.0,10.0,93,0.00,,,0.44,Wunderground v.1.15,2013-09-22 22:15:00,
2013-09-22 15:16:00,57.8,55.8,29.58,ESE,121,0.0,10.0,93,0.00,,,0.44,Wunderground v.1.15,2013-09-22 22:16:00,
2013-09-22 15:18:00,57.9,55.9,29.58,ESE,121,0.0,10.0,93,0.00,,,0.44,Wunderground v.1.15,2013-09-22 22:18:00,
2013-09-22 15:20:00,57.8,55.5,29.58,ESE,114,1.0,2.0,92,0.00,,,0.44,Wunderground v.1.15,2013-09-22 22:20:00,
2013-09-22 15:21:00,57.8,55.5,29.58,NE,43,0.0,6.0,92,0.00,,,0.44,Wunderground v.1.15,2013-09-22 22:21:00,
2013-09-22 15:23:00,57.9,55.6,29.59,SE,140,5.0,8.0,92,0.00,,,0.44,Wunderground v.1.15,2013-09-22 22:23:00,
2013-09-22 15:25:00,58.0,55.7,29.59,SE,131,0.0,8.0,92,0.00,,,0.44,Wunderground v.1.15,2013-09-22 22:25:00,
2013-09-22 15:26:00,58.0,55.7,29.59,ENE,78,1.0,8.0,92,0.00,,,0.44,Wunderground v.1.15,2013-09-22 22:26:00,
2013-09-22 15:28:00,58.1,55.8,29.59,SE,137,4.0,8.0,92,0.00,,,0.44,Wunderground v.1.15,2013-09-22 22:28:00,
2013-09-22 15:30:00,58.1,55.8,29.59,South,184,0.0,4.0,92,0.00,,,0.44,Wunderground v.1.15,2013-09-22 22:30:00,
2013-09-22 15:31:00,58.1,55.5,29.59,NE,47,0.0,4.0,91,0.00,,,0.44,Wunderground v.1.15,2013-09-22 22:31:00,
2013-09-22 15:33:00,58.2,55.9,29.59,ENE,76,1.0,4.0,92,0.00,,,0.44,Wunderground v.1.15,2013-09-22 22:33:00,
2013-09-22 15:36:00,58.1,55.5,29.59,WNW,282,2.0,8.0,91,0.00,,,0.44,Wunderground v.1.15,2013-09-22 22:36:00,
2013-09-22 15:38:00,58.2,55.3,29.60,ENE,62,0.0,8.0,90,0.00,,,0.44,Wunderground v.1.15,2013-09-22 22:38:00,
2013-09-22 15:41:00,58.2,55.6,29.60,NE,43,0.0,2.0,91,0.00,,,0.44,Wunderground v.1.15,2013-09-22 22:41:00,
2013-09-22 15:43:00,58.3,55.7,29.60,ESE,117,0.0,5.0,91,0.00,,,0.44,Wunderground v.1.15,2013-09-22 22:43:00,
2013-09-22 15:46:00,58.3,55.4,29.60,NE,56,0.0,6.0,90,0.00,,,0.44,Wunderground v.1.15,2013-09-22 22:46:00,
2013-09-22 15:47:00,58.3,55.4,29.60,SSE,149,4.0,7.0,90,0.00,,,0.44,Wunderground v.1.15,2013-09-22 22:47:00,
2013-09-22 15:48:00,58.4,55.5,29.60,East,99,0.0,7.0,90,0.00,,,0.44,Wunderground v.1.15,2013-09-22 22:48:00,
2013-09-22 15:51:00,58.4,55.5,29.60,NE,50,0.0,5.0,90,0.00,,,0.44,Wunderground v.1.15,2013-09-22 22:51:00,
2013-09-22 15:52:00,58.4,55.5,29.60,SSE,156,5.0,5.0,90,0.00,,,0.44,Wunderground v.1.15,2013-09-22 22:52:00,
2013-09-22 15:53:00,58.5,55.6,29.60,SE,135,0.0,6.0,90,0.00,,,0.44,Wunderground v.1.15,2013-09-22 22:53:00,
2013-09-22 15:56:00,58.6,55.7,29.60,ESE,106,0.0,8.0,90,0.00,,,0.44,Wunderground v.1.15,2013-09-22 22:56:00,
2013-09-22 15:57:00,58.6,55.7,29.60,NNW,341,2.0,8.0,90,0.00,,,0.44,Wunderground v.1.15,2013-09-22 22:57:00,
2013-09-22 15:58:00,58.6,55.7,29.60,East,101,1.0,8.0,90,0.00,,,0.44,Wunderground v.1.15,2013-09-22 22:58:00,
2013-09-22 16:01:00,58.7,55.5,29.61,ENE,76,0.0,7.0,89,0.00,,,0.44,Wunderground v.1.15,2013-09-22 23:01:00,
2013-09-22 16:02:00,58.7,55.5,29.60,ENE,76,0.0,7.0,89,0.00,,,0.44,Wunderground v.1.15,2013-09-22 23:02:00,
2013-09-22 16:03:00,58.7,55.5,29.60,ENE,76,0.0,7.0,89,0.00,,,0.44,Wunderground v.1.15,2013-09-22 23:03:00,
2013-09-22 16:04:00,58.8,55.6,29.61,ESE,111,2.0,7.0,89,0.00,,,0.44,Wunderground v.1.15,2013-09-22 23:04:00,
2013-09-22 16:07:00,58.8,55.6,29.61,SE,131,0.0,7.0,89,0.00,,,0.44,Wunderground v.1.15,2013-09-22 23:07:00,
2013-09-22 16:08:00,58.9,55.7,29.61,NE,52,0.0,7.0,89,0.00,,,0.44,Wunderground v.1.15,2013-09-22 23:08:00,
2013-09-22 16:09:00,58.9,55.7,29.61,SE,124,1.0,7.0,89,0.00,,,0.44,Wunderground v.1.15,2013-09-22 23:09:00,
2013-09-22 16:12:00,59.0,55.8,29.61,ENE,61,1.0,5.0,89,0.00,,,0.44,Wunderground v.1.15,2013-09-22 23:12:00,
2013-09-22 16:13:00,59.0,55.8,29.61,East,99,1.0,7.0,89,0.00,,,0.44,Wunderground v.1.15,2013-09-22 23:13:00,
2013-09-22 16:14:00,59.0,55.8,29.61,ESE,120,2.0,9.0,89,0.00,,,0.44,Wunderground v.1.15,2013-09-22 23:14:00,
2013-09-22 16:17:00,59.1,55.5,29.60,ESE,116,0.0,9.0,88,0.00,,,0.44,Wunderground v.1.15,2013-09-22 23:17:00,
2013-09-22 16:18:00,59.1,55.5,29.60,ESE,116,0.0,9.0,88,0.00,,,0.44,Wunderground v.1.15,2013-09-22 23:18:00,
2013-09-22 16:19:00,59.2,55.6,29.61,SE,129,1.0,9.0,88,0.00,,,0.44,Wunderground v.1.15,2013-09-22 23:19:00,
2013-09-22 16:22:00,59.3,55.7,29.60,ESE,111,0.0,5.0,88,0.00,,,0.44,Wunderground v.1.15,2013-09-22 23:22:00,
2013-09-22 16:23:00,59.3,55.7,29.60,SE,129,0.0,5.0,88,0.00,,,0.44,Wunderground v.1.15,2013-09-22 23:23:00,
2013-09-22 16:24:00,59.3,55.7,29.60,NE,53,0.0,5.0,88,0.00,,,0.44,Wunderground v.1.15,2013-09-22 23:24:00,
2013-09-22 16:27:00,59.3,55.4,29.60,NE,41,2.0,9.0,87,0.00,,,0.44,Wunderground v.1.15,2013-09-22 23:27:00,
2013-09-22 16:28:00,59.3,55.4,29.60,East,82,0.0,9.0,87,0.00,,,0.44,Wunderground v.1.15,2013-09-22 23:28:00,
2013-09-22 16:29:00,59.4,55.8,29.60,ENE,64,2.0,9.0,88,0.00,,,0.44,Wunderground v.1.15,2013-09-22 23:29:00,
2013-09-22 16:33:00,59.3,55.7,29.60,ESE,117,0.0,4.0,88,0.00,,,0.44,Wunderground v.1.15,2013-09-22 23:33:00,
2013-09-22 16:34:00,59.3,55.7,29.60,ESE,116,0.0,4.0,88,0.00,,,0.44,Wunderground v.1.15,2013-09-22 23:34:00,
2013-09-22 16:35:00,59.3,55.7,29.60,ESE,116,0.0,4.0,88,0.00,,,0.44,Wunderground v.1.15,2013-09-22 23:35:00,
2013-09-22 16:38:00,59.2,55.6,29.60,North,5,0.0,7.0,88,0.00,,,0.44,Wunderground v.1.15,2013-09-22 23:38:00,
2013-09-22 16:39:00,59.2,55.6,29.60,ENE,74,0.0,7.0,88,0.00,,,0.44,Wunderground v.1.15,2013-09-22 23:39:00,
2013-09-22 16:40:00,59.2,55.6,29.60,ENE,74,0.0,1.0,88,0.00,,,0.44,Wunderground v.1.15,2013-09-22 23:40:00,
2013-09-22 16:43:00,59.2,55.3,29.61,East,84,0.0,4.0,87,0.00,,,0.44,Wunderground v.1.15,2013-09-22 23:43:00,
2013-09-22 16:44:00,59.2,55.3,29.61,NE,53,0.0,4.0,87,0.00,,,0.44,Wunderground v.1.15,2013-09-22 23:44:00,
2013-09-22 16:45:00,59.2,55.6,29.61,East,84,0.0,4.0,88,0.00,,,0.44,Wunderground v.1.15,2013-09-22 23:45:00,
2013-09-22 16:48:00,59.2,55.3,29.61,East,98,0.0,4.0,87,0.00,,,0.44,Wunderground v.1.15,2013-09-22 23:48:00,
2013-09-22 16:49:00,59.2,55.6,29.61,SE,125,0.0,4.0,88,0.00,,,0.44,Wunderground v.1.15,2013-09-22 23:49:00,
2013-09-22 16:51:00,59.3,55.7,29.61,ESE,117,1.0,5.0,88,0.00,,,0.44,Wunderground v.1.15,2013-09-22 23:51:00,
2013-09-22 16:53:00,59.2,55.6,29.61,North,5,0.0,5.0,88,0.00,,,0.44,Wunderground v.1.15,2013-09-22 23:53:00,
2013-09-22 16:54:00,59.2,55.3,29.61,NE,41,0.0,5.0,87,0.00,,,0.44,Wunderground v.1.15,2013-09-22 23:54:00,
2013-09-22 16:56:00,59.2,55.3,29.61,SE,124,9.0,9.0,87,0.00,,,0.44,Wunderground v.1.15,2013-09-22 23:56:00,
2013-09-22 16:58:00,59.2,55.3,29.61,ENE,68,0.0,10.0,87,0.00,,,0.44,Wunderground v.1.15,2013-09-22 23:58:00,
2013-09-22 16:59:00,59.2,55.3,29.61,ENE,67,1.0,10.0,87,0.00,,,0.44,Wunderground v.1.15,2013-09-22 23:59:00,
2013-09-22 17:01:00,59.3,55.7,29.62,North,10,0.0,3.0,88,0.00,,,0.44,Wunderground v.1.15,2013-09-23 00:01:00,
2013-09-22 17:03:00,59.3,55.7,29.62,ESE,117,0.0,3.0,88,0.00,,,0.44,Wunderground v.1.15,2013-09-23 00:03:00,
2013-09-22 17:04:00,59.3,55.7,29.62,ESE,116,1.0,3.0,88,0.00,,,0.44,Wunderground v.1.15,2013-09-23 00:04:00,
2013-09-22 17:06:00,59.2,55.3,29.62,SE,136,0.0,3.0,87,0.00,,,0.44,Wunderground v.1.15,2013-09-23 00:06:00,
2013-09-22 17:09:00,59.2,55.3,29.62,NNE,30,1.0,3.0,87,0.00,,,0.44,Wunderground v.1.15,2013-09-23 00:09:00,
2013-09-22 17:11:00,59.1,55.2,29.62,NE,50,1.0,2.0,87,0.00,,,0.44,Wunderground v.1.15,2013-09-23 00:11:00,
2013-09-22 17:14:00,59.1,55.2,29.62,ENE,70,0.0,2.0,87,0.00,,,0.44,Wunderground v.1.15,2013-09-23 00:14:00,
2013-09-22 17:16:00,59.0,55.1,29.62,SE,126,0.0,2.0,87,0.00,,,0.44,Wunderground v.1.15,2013-09-23 00:16:00,
2013-09-22 17:19:00,59.0,55.4,29.62,ENE,66,0.0,2.0,88,0.00,,,0.45,Wunderground v.1.15,2013-09-23 00:19:00,
2013-09-22 17:21:00,59.0,55.4,29.62,ENE,66,0.0,2.0,88,0.00,,,0.45,Wunderground v.1.15,2013-09-23 00:21:00,
2013-09-22 17:24:00,58.9,55.7,29.62,NE,44,0.0,4.0,89,0.00,,,0.45,Wunderground v.1.15,2013-09-23 00:24:00,
2013-09-22 17:25:00,58.8,55.6,29.62,NE,43,0.0,4.0,89,0.00,,,0.45,Wunderground v.1.15,2013-09-23 00:25:00,
2013-09-22 17:27:00,58.8,55.6,29.62,SE,131,4.0,4.0,89,0.00,,,0.45,Wunderground v.1.15,2013-09-23 00:27:00,
2013-09-22 17:29:00,58.7,55.5,29.62,East,80,0.0,4.0,89,0.00,,,0.45,Wunderground v.1.15,2013-09-23 00:29:00,
2013-09-22 17:30:00,58.7,55.5,29.62,East,80,0.0,0.0,89,0.00,,,0.45,Wunderground v.1.15,2013-09-23 00:30:00,
2013-09-22 17:32:00,58.7,55.5,29.62,East,80,0.0,1.0,89,0.00,,,0.45,Wunderground v.1.15,2013-09-23 00:32:00,
2013-09-22 17:34:00,58.7,55.5,29.62,ESE,110,1.0,2.0,89,0.00,,,0.45,Wunderground v.1.15,2013-09-23 00:34:00,
2013-09-22 17:35:00,58.7,55.5,29.62,NNE,26,0.0,2.0,89,0.00,,,0.45,Wunderground v.1.15,2013-09-23 00:35:00,
2013-09-22 17:37:00,58.7,55.5,29.62,ENE,62,0.0,2.0,89,0.00,,,0.45,Wunderground v.1.15,2013-09-23 00:37:00,
2013-09-22 17:40:00,58.7,55.5,29.62,SE,127,0.0,0.0,89,0.00,,,0.45,Wunderground v.1.15,2013-09-23 00:40:00,
2013-09-22 17:42:00,58.8,55.6,29.63,ESE,116,7.0,7.0,89,0.00,,,0.45,Wunderground v.1.15,2013-09-23 00:42:00,
2013-09-22 17:45:00,58.8,55.3,29.62,SSE,162,4.0,8.0,88,0.00,,,0.45,Wunderground v.1.15,2013-09-23 00:45:00,
2013-09-22 17:47:00,58.9,55.4,29.63,ESE,106,0.0,8.0,88,0.00,,,0.45,Wunderground v.1.15,2013-09-23 00:47:00,
2013-09-22 17:50:00,59.0,55.1,29.63,ESE,123,0.0,1.0,87,0.00,,,0.45,Wunderground v.1.15,2013-09-23 00:50:00,
2013-09-22 17:52:00,59.2,55.3,29.63,SE,125,0.0,8.0,87,0.00,,,0.45,Wunderground v.1.15,2013-09-23 00:52:00,
2013-09-22 17:55:00,59.3,55.7,29.63,NE,37,0.0,8.0,88,0.00,,,0.45,Wunderground v.1.15,2013-09-23 00:55:00,
2013-09-22 17:57:00,59.3,55.7,29.63,East,82,0.0,8.0,88,0.00,,,0.45,Wunderground v.1.15,2013-09-23 00:57:00,
2013-09-22 17:58:00,59.3,55.7,29.63,NE,46,1.0,8.0,88,0.00,,,0.45,Wunderground v.1.15,2013-09-23 00:58:00,
2013-09-22 18:00:00,59.3,55.7,29.63,SE,135,1.0,1.0,88,0.00,,,0.45,Wunderground v.1.15,2013-09-23 01:00:00,
2013-09-22 18:01:00,59.3,55.1,29.63,SE,124,0.0,4.0,86,0.00,,,0.45,Wunderground v.1.15,2013-09-23 01:01:00,
2013-09-22 18:02:00,59.2,55.0,29.63,SE,124,0.0,4.0,86,0.00,,,0.45,Wunderground v.1.15,2013-09-23 01:02:00,
2013-09-22 18:03:00,59.2,55.3,29.63,SE,124,0.0,4.0,87,0.00,,,0.45,Wunderground v.1.15,2013-09-23 01:03:00,
2013-09-22 18:05:00,59.2,55.3,29.63,SE,146,0.0,4.0,87,0.00,,,0.45,Wunderground v.1.15,2013-09-23 01:05:00,
2013-09-22 18:06:00,59.2,55.3,29.63,NE,45,0.0,4.0,87,0.00,,,0.45,Wunderground v.1.15,2013-09-23 01:06:00,
2013-09-22 18:08:00,59.1,55.2,29.63,NE,45,0.0,4.0,87,0.00,,,0.45,Wunderground v.1.15,2013-09-23 01:08:00,
2013-09-22 18:10:00,59.1,55.2,29.63,NE,45,0.0,0.0,87,0.00,,,0.45,Wunderground v.1.15,2013-09-23 01:10:00,
2013-09-22 18:11:00,59.0,55.1,29.63,NNE,33,3.0,3.0,87,0.00,,,0.45,Wunderground v.1.15,2013-09-23 01:11:00,
2013-09-22 18:13:00,58.9,55.0,29.63,NNW,335,0.0,3.0,87,0.00,,,0.45,Wunderground v.1.15,2013-09-23 01:13:00,
2013-09-22 18:14:00,58.8,54.9,29.63,North,5,1.0,3.0,87,0.00,,,0.45,Wunderground v.1.15,2013-09-23 01:14:00,
2013-09-22 18:15:00,58.8,54.9,29.63,SSE,158,0.0,3.0,87,0.00,,,0.45,Wunderground v.1.15,2013-09-23 01:15:00,
2013-09-22 18:16:00,58.8,54.9,29.63,SSE,157,0.0,3.0,87,0.00,,,0.45,Wunderground v.1.15,2013-09-23 01:16:00,
2013-09-22 18:18:00,58.7,54.8,29.63,East,82,0.0,3.0,87,0.00,,,0.45,Wunderground v.1.15,2013-09-23 01:18:00,
2013-09-22 18:19:00,58.7,54.8,29.63,East,82,0.0,3.0,87,0.00,,,0.45,Wunderground v.1.15,2013-09-23 01:19:00,
2013-09-22 18:20:00,58.6,55.1,29.63,East,83,0.0,1.0,88,0.00,,,0.45,Wunderground v.1.15,2013-09-23 01:20:00,
2013-09-22 18:22:00,58.6,55.1,29.63,ESE,105,0.0,4.0,88,0.00,,,0.45,Wunderground v.1.15,2013-09-23 01:22:00,
2013-09-22 18:23:00,58.5,55.0,29.63,SW,233,0.0,4.0,88,0.00,,,0.45,Wunderground v.1.15,2013-09-23 01:23:00,
2013-09-22 18:25:00,58.5,55.0,29.63,SW,233,0.0,4.0,88,0.00,,,0.45,Wunderground v.1.15,2013-09-23 01:25:00,
2013-09-22 18:27:00,58.5,55.0,29.63,East,93,3.0,5.0,88,0.00,,,0.45,Wunderground v.1.15,2013-09-23 01:27:00,
2013-09-22 18:29:00,58.5,55.0,29.63,East,100,0.0,5.0,88,0.00,,,0.45,Wunderground v.1.15,2013-09-23 01:29:00,
2013-09-22 18:30:00,58.5,55.0,29.63,East,100,0.0,0.0,88,0.00,,,0.45,Wunderground v.1.15,2013-09-23 01:30:00,
2013-09-22 18:32:00,58.4,54.9,29.63,East,101,0.0,1.0,88,0.00,,,0.45,Wunderground v.1.15,2013-09-23 01:32:00,
2013-09-22 18:34:00,58.4,54.9,29.63,ESE,116,6.0,8.0,88,0.00,,,0.45,Wunderground v.1.15,2013-09-23 01:34:00,
2013-09-22 18:35:00,58.4,54.9,29.63,East,95,0.0,8.0,88,0.00,,,0.45,Wunderground v.1.15,2013-09-23 01:35:00,
2013-09-22 18:37:00,58.4,54.9,29.63,SE,143,4.0,8.0,88,0.00,,,0.45,Wunderground v.1.15,2013-09-23 01:37:00,
2013-09-22 18:40:00,58.4,54.9,29.63,NE,41,0.0,1.0,88,0.00,,,0.45,Wunderground v.1.15,2013-09-23 01:40:00,
2013-09-22 18:41:00,58.4,54.9,29.64,NE,35,0.0,1.0,88,0.00,,,0.45,Wunderground v.1.15,2013-09-23 01:41:00,
2013-09-22 18:42:00,58.4,54.5,29.64,East,99,5.0,8.0,87,0.00,,,0.45,Wunderground v.1.15,2013-09-23 01:42:00,
2013-09-22 18:45:00,58.4,54.5,29.64,NE,47,7.0,8.0,87,0.00,,,0.45,Wunderground v.1.15,2013-09-23 01:45:00,
2013-09-22 18:46:00,58.3,54.1,29.64,NE,56,0.0,8.0,86,0.00,,,0.45,Wunderground v.1.15,2013-09-23 01:46:00,
2013-09-22 18:47:00,58.3,54.1,29.64,East,87,0.0,9.0,86,0.00,,,0.45,Wunderground v.1.15,2013-09-23 01:47:00,
2013-09-22 18:50:00,58.3,54.1,29.64,ESE,121,0.0,4.0,86,0.00,,,0.45,Wunderground v.1.15,2013-09-23 01:50:00,
2013-09-22 18:51:00,58.3,54.1,29.65,SE,125,0.0,4.0,86,0.00,,,0.45,Wunderground v.1.15,2013-09-23 01:51:00,
2013-09-22 18:53:00,58.3,54.4,29.64,East,88,0.0,4.0,87,0.00,,,0.45,Wunderground v.1.15,2013-09-23 01:53:00,
2013-09-22 18:55:00,58.2,54.0,29.65,NE,48,0.0,6.0,86,0.00,,,0.45,Wunderground v.1.15,2013-09-23 01:55:00,
2013-09-22 18:56:00,58.2,54.0,29.65,NE,48,0.0,6.0,86,0.00,,,0.45,Wunderground v.1.15,2013-09-23 01:56:00,
2013-09-22 18:58:00,58.1,53.9,29.65,ESE,110,2.0,9.0,86,0.00,,,0.45,Wunderground v.1.15,2013-09-23 01:58:00,
2013-09-22 19:01:00,58.0,53.8,29.65,SE,124,0.0,1.0,86,0.00,,,0.45,Wunderground v.1.15,2013-09-23 02:01:00,
2013-09-22 19:03:00,58.0,53.8,29.65,SE,133,0.0,5.0,86,0.00,,,0.45,Wunderground v.1.15,2013-09-23 02:03:00,
2013-09-22 19:06:00,57.8,53.3,29.65,ESE,120,0.0,6.0,85,0.00,,,0.45,Wunderground v.1.15,2013-09-23 02:06:00,
2013-09-22 19:08:00,57.7,53.2,29.65,NE,48,0.0,6.0,85,0.00,,,0.45,Wunderground v.1.15,2013-09-23 02:08:00,
2013-09-22 19:11:00,57.6,53.1,29.65,East,101,0.0,2.0,85,0.00,,,0.45,Wunderground v.1.15,2013-09-23 02:11:00,
2013-09-22 19:14:00,57.4,52.9,29.65,East,101,0.0,2.0,85,0.00,,,0.45,Wunderground v.1.15,2013-09-23 02:14:00,
2013-09-22 19:16:00,57.3,52.8,29.65,East,101,0.0,2.0,85,0.00,,,0.45,Wunderground v.1.15,2013-09-23 02:16:00,
2013-09-22 19:17:00,57.3,52.8,29.65,East,101,0.0,2.0,85,0.00,,,0.45,Wunderground v.1.15,2013-09-23 02:17:00,
2013-09-22 19:19:00,57.2,53.0,29.65,NE,45,0.0,2.0,86,0.00,,,0.45,Wunderground v.1.15,2013-09-23 02:19:00,
2013-09-22 19:21:00,57.1,53.3,29.65,NNE,31,0.0,2.0,87,0.00,,,0.45,Wunderground v.1.15,2013-09-23 02:21:00,
2013-09-22 19:22:00,57.1,53.3,29.65,NNE,31,0.0,2.0,87,0.00,,,0.45,Wunderground v.1.15,2013-09-23 02:22:00,
2013-09-22 19:23:00,57.0,53.2,29.65,NE,43,0.0,2.0,87,0.00,,,0.45,Wunderground v.1.15,2013-09-23 02:23:00,
2013-09-22 19:24:00,57.0,53.2,29.65,ENE,72,0.0,2.0,87,0.00,,,0.45,Wunderground v.1.15,2013-09-23 02:24:00,
2013-09-22 19:27:00,56.8,52.7,29.66,ESE,122,0.0,2.0,86,0.00,,,0.45,Wunderground v.1.15,2013-09-23 02:27:00,
2013-09-22 19:28:00,56.7,52.6,29.66,SE,124,0.0,2.0,86,0.00,,,0.45,Wunderground v.1.15,2013-09-23 02:28:00,
2013-09-22 19:29:00,56.7,52.6,29.66,SE,124,0.0,2.0,86,0.00,,,0.45,Wunderground v.1.15,2013-09-23 02:29:00,
2013-09-22 19:32:00,56.6,52.8,29.66,NE,51,0.0,3.0,87,0.00,,,0.45,Wunderground v.1.15,2013-09-23 02:32:00,
2013-09-22 19:33:00,56.5,52.7,29.66,NE,51,0.0,3.0,87,0.00,,,0.45,Wunderground v.1.15,2013-09-23 02:33:00,
2013-09-22 19:34:00,56.5,52.7,29.66,NE,51,0.0,3.0,87,0.00,,,0.45,Wunderground v.1.15,2013-09-23 02:34:00,
2013-09-22 19:37:00,56.4,52.6,29.66,SSE,152,13.0,13.0,87,0.00,,,0.45,Wunderground v.1.15,2013-09-23 02:37:00,
2013-09-22 19:39:00,56.3,52.2,29.66,SE,133,0.0,13.0,86,0.00,,,0.45,Wunderground v.1.15,2013-09-23 02:39:00,
2013-09-22 19:42:00,56.3,52.2,29.66,SSW,202,0.0,5.0,86,0.00,,,0.45,Wunderground v.1.15,2013-09-23 02:42:00,
2013-09-22 19:43:00,56.4,52.3,29.66,SW,219,0.0,5.0,86,0.00,,,0.45,Wunderground v.1.15,2013-09-23 02:43:00,
2013-09-22 19:44:00,56.4,52.6,29.66,WSW,251,0.0,5.0,87,0.00,,,0.45,Wunderground v.1.15,2013-09-23 02:44:00,
2013-09-22 19:47:00,56.3,52.5,29.66,SE,135,1.0,5.0,87,0.00,,,0.45,Wunderground v.1.15,2013-09-23 02:47:00,
2013-09-22 19:48:00,56.3,52.5,29.66,SE,138,5.0,7.0,87,0.00,,,0.45,Wunderground v.1.15,2013-09-23 02:48:00,
2013-09-22 19:49:00,56.3,52.5,29.67,ESE,116,0.0,7.0,87,0.00,,,0.45,Wunderground v.1.15,2013-09-23 02:49:00,
2013-09-22 19:53:00,56.4,52.6,29.67,SE,125,0.0,7.0,87,0.00,,,0.45,Wunderground v.1.15,2013-09-23 02:53:00,
2013-09-22 19:54:00,56.4,52.6,29.67,ESE,106,0.0,7.0,87,0.00,,,0.45,Wunderground v.1.15,2013-09-23 02:54:00,
2013-09-22 19:58:00,56.5,52.7,29.67,ESE,119,0.0,7.0,87,0.00,,,0.45,Wunderground v.1.15,2013-09-23 02:58:00,
2013-09-22 19:59:00,56.5,52.7,29.67,ENE,64,0.0,7.0,87,0.00,,,0.45,Wunderground v.1.15,2013-09-23 02:59:00,
2013-09-22 20:00:00,56.5,52.7,29.67,ESE,114,4.0,5.0,87,0.00,,,0.45,Wunderground v.1.15,2013-09-23 03:00:00,
2013-09-22 20:03:00,56.6,52.8,29.67,ENE,71,0.0,5.0,87,0.00,,,0.45,Wunderground v.1.15,2013-09-23 03:03:00,
2013-09-22 20:04:00,56.6,52.8,29.67,East,84,0.0,5.0,87,0.00,,,0.45,Wunderground v.1.15,2013-09-23 03:04:00,
2013-09-22 20:05:00,56.6,52.8,29.67,East,83,0.0,5.0,87,0.00,,,0.45,Wunderground v.1.15,2013-09-23 03:05:00,
2013-09-22 20:08:00,56.6,52.5,29.67,East,101,2.0,6.0,86,0.00,,,0.45,Wunderground v.1.15,2013-09-23 03:08:00,
2013-09-22 20:09:00,56.7,52.6,29.67,East,101,0.0,6.0,86,0.00,,,0.45,Wunderground v.1.15,2013-09-23 03:09:00,
2013-09-22 20:10:00,56.7,52.6,29.67,East,101,0.0,1.0,86,0.00,,,0.45,Wunderground v.1.15,2013-09-23 03:10:00,
2013-09-22 20:13:00,56.8,52.7,29.67,ENE,71,0.0,2.0,86,0.00,,,0.45,Wunderground v.1.15,2013-09-23 03:13:00,
2013-09-22 20:14:00,56.8,52.7,29.67,ENE,70,0.0,2.0,86,0.00,,,0.45,Wunderground v.1.15,2013-09-23 03:14:00,
2013-09-22 20:15:00,56.7,52.6,29.67,ENE,60,0.0,2.0,86,0.00,,,0.45,Wunderground v.1.15,2013-09-23 03:15:00,
2013-09-22 20:18:00,56.7,52.6,29.68,East,91,0.0,5.0,86,0.00,,,0.45,Wunderground v.1.15,2013-09-23 03:18:00,
2013-09-22 20:19:00,56.7,52.6,29.68,East,91,0.0,5.0,86,0.00,,,0.45,Wunderground v.1.15,2013-09-23 03:19:00,
2013-09-22 20:20:00,56.7,52.6,29.68,East,99,0.0,1.0,86,0.00,,,0.45,Wunderground v.1.15,2013-09-23 03:20:00,
2013-09-22 20:23:00,56.6,52.5,29.68,ESE,117,0.0,4.0,86,0.00,,,0.45,Wunderground v.1.15,2013-09-23 03:23:00,
2013-09-22 20:24:00,56.6,52.5,29.68,ESE,118,0.0,4.0,86,0.00,,,0.45,Wunderground v.1.15,2013-09-23 03:24:00,
2013-09-22 20:25:00,56.6,52.5,29.68,ESE,118,0.0,4.0,86,0.00,,,0.45,Wunderground v.1.15,2013-09-23 03:25:00,
2013-09-22 20:29:00,56.5,52.4,29.68,East,79,3.0,8.0,86,0.00,,,0.45,Wunderground v.1.15,2013-09-23 03:29:00,
2013-09-22 20:30:00,56.5,52.4,29.68,SE,124,0.0,2.0,86,0.00,,,0.45,Wunderground v.1.15,2013-09-23 03:30:00,
2013-09-22 20:34:00,56.5,52.4,29.68,ESE,122,2.0,9.0,86,0.00,,,0.45,Wunderground v.1.15,2013-09-23 03:34:00,
2013-09-22 20:35:00,56.5,52.4,29.68,SE,124,0.0,9.0,86,0.00,,,0.45,Wunderground v.1.15,2013-09-23 03:35:00,
2013-09-22 20:39:00,56.5,52.4,29.68,NE,39,0.0,9.0,86,0.00,,,0.45,Wunderground v.1.15,2013-09-23 03:39:00,
2013-09-22 20:40:00,56.5,52.4,29.68,SE,139,0.0,1.0,86,0.00,,,0.45,Wunderground v.1.15,2013-09-23 03:40:00,
2013-09-22 20:41:00,56.5,52.4,29.68,ESE,116,0.0,5.0,86,0.00,,,0.45,Wunderground v.1.15,2013-09-23 03:41:00,
2013-09-22 20:44:00,56.4,52.3,29.68,ESE,122,2.0,5.0,86,0.00,,,0.45,Wunderground v.1.15,2013-09-23 03:44:00,
2013-09-22 20:45:00,56.4,52.3,29.68,SE,137,0.0,5.0,86,0.00,,,0.45,Wunderground v.1.15,2013-09-23 03:45:00,
2013-09-22 20:46:00,56.3,52.2,29.69,SE,128,5.0,5.0,86,0.00,,,0.45,Wunderground v.1.15,2013-09-23 03:46:00,
2013-09-22 20:49:00,56.2,52.4,29.69,ENE,69,0.0,5.0,87,0.00,,,0.45,Wunderground v.1.15,2013-09-23 03:49:00,
2013-09-22 20:50:00,56.2,52.4,29.68,SSE,161,5.0,8.0,87,0.00,,,0.45,Wunderground v.1.15,2013-09-23 03:50:00,
2013-09-22 20:52:00,56.1,52.3,29.69,ENE,76,0.0,8.0,87,0.00,,,0.45,Wunderground v.1.15,2013-09-23 03:52:00,
2013-09-22 20:54:00,56.1,52.3,29.69,SE,137,0.0,8.0,87,0.00,,,0.45,Wunderground v.1.15,2013-09-23 03:54:00,
2013-09-22 20:55:00,56.0,52.2,29.69,NE,47,0.0,8.0,87,0.00,,,0.45,Wunderground v.1.15,2013-09-23 03:55:00,
2013-09-22 20:57:00,55.9,52.4,29.69,ENE,64,0.0,8.0,88,0.00,,,0.45,Wunderground v.1.15,2013-09-23 03:57:00,
2013-09-22 20:59:00,55.9,52.4,29.69,ENE,68,0.0,8.0,88,0.00,,,0.45,Wunderground v.1.15,2013-09-23 03:59:00,
2013-09-22 21:00:00,55.8,52.3,29.69,ENE,64,1.0,1.0,88,0.00,,,0.45,Wunderground v.1.15,2013-09-23 04:00:00,
2013-09-22 21:01:00,55.8,52.3,29.69,ENE,68,1.0,2.0,88,0.00,,,0.45,Wunderground v.1.15,2013-09-23 04:01:00,
2013-09-22 21:06:00,55.8,52.3,29.69,ESE,114,0.0,8.0,88,0.00,,,0.45,Wunderground v.1.15,2013-09-23 04:06:00,
2013-09-22 21:11:00,55.8,52.3,29.70,East,94,0.0,5.0,88,0.00,,,0.45,Wunderground v.1.15,2013-09-23 04:11:00,
2013-09-22 21:12:00,55.8,52.3,29.70,East,83,0.0,5.0,88,0.00,,,0.45,Wunderground v.1.15,2013-09-23 04:12:00,
2013-09-22 21:16:00,55.8,52.3,29.70,NE,56,0.0,5.0,88,0.00,,,0.45,Wunderground v.1.15,2013-09-23 04:16:00,
2013-09-22 21:17:00,55.8,52.3,29.70,NE,56,0.0,5.0,88,0.00,,,0.45,Wunderground v.1.15,2013-09-23 04:17:00,
2013-09-22 21:22:00,55.8,52.3,29.70,ESE,121,0.0,6.0,88,0.00,,,0.45,Wunderground v.1.15,2013-09-23 04:22:00,
2013-09-22 21:27:00,55.9,52.4,29.70,SW,223,0.0,6.0,88,0.00,,,0.45,Wunderground v.1.15,2013-09-23 04:27:00,
2013-09-22 21:32:00,55.8,52.3,29.70,ESE,122,0.0,5.0,88,0.00,,,0.45,Wunderground v.1.15,2013-09-23 04:32:00,
2013-09-22 21:33:00,55.8,52.3,29.71,ESE,122,0.0,5.0,88,0.00,,,0.45,Wunderground v.1.15,2013-09-23 04:33:00,
2013-09-22 21:37:00,55.7,52.5,29.71,SE,128,0.0,5.0,89,0.00,,,0.45,Wunderground v.1.15,2013-09-23 04:37:00,
2013-09-22 21:38:00,55.7,52.5,29.71,SE,128,1.0,5.0,89,0.00,,,0.45,Wunderground v.1.15,2013-09-23 04:38:00,
2013-09-22 21:39:00,55.7,52.5,29.71,East,87,0.0,5.0,89,0.00,,,0.45,Wunderground v.1.15,2013-09-23 04:39:00,
2013-09-22 21:42:00,55.8,52.6,29.71,North,5,0.0,2.0,89,0.00,,,0.45,Wunderground v.1.15,2013-09-23 04:42:00,
2013-09-22 21:43:00,55.8,52.6,29.71,NE,52,3.0,4.0,89,0.00,,,0.45,Wunderground v.1.15,2013-09-23 04:43:00,
2013-09-22 21:44:00,55.8,52.6,29.71,NE,52,0.0,4.0,89,0.00,,,0.45,Wunderground v.1.15,2013-09-23 04:44:00,
2013-09-22 21:47:00,55.8,52.6,29.71,NE,52,0.0,4.0,89,0.00,,,0.45,Wunderground v.1.15,2013-09-23 04:47:00,
2013-09-22 21:48:00,55.8,52.9,29.71,NE,53,0.0,4.0,90,0.00,,,0.45,Wunderground v.1.15,2013-09-23 04:48:00,
2013-09-22 21:49:00,55.8,52.9,29.71,NE,53,0.0,4.0,90,0.00,,,0.45,Wunderground v.1.15,2013-09-23 04:49:00,
2013-09-22 21:52:00,55.8,52.9,29.71,NE,53,0.0,1.0,90,0.00,,,0.45,Wunderground v.1.15,2013-09-23 04:52:00,
2013-09-22 21:53:00,55.7,52.8,29.71,SW,220,0.0,2.0,90,0.00,,,0.45,Wunderground v.1.15,2013-09-23 04:53:00,
2013-09-22 21:54:00,55.7,52.8,29.71,East,88,0.0,2.0,90,0.00,,,0.45,Wunderground v.1.15,2013-09-23 04:54:00,
2013-09-22 21:58:00,55.7,52.8,29.71,East,90,0.0,3.0,90,0.00,,,0.45,Wunderground v.1.15,2013-09-23 04:58:00,
2013-09-22 21:59:00,55.7,52.8,29.72,East,90,0.0,3.0,90,0.00,,,0.45,Wunderground v.1.15,2013-09-23 04:59:00,
2013-09-22 22:03:00,55.7,52.8,29.71,East,80,0.0,4.0,90,0.00,,,0.45,Wunderground v.1.15,2013-09-23 05:03:00,
2013-09-22 22:04:00,55.7,52.8,29.71,SE,143,0.0,5.0,90,0.00,,,0.45,Wunderground v.1.15,2013-09-23 05:04:00,
2013-09-22 22:05:00,55.7,52.8,29.71,SE,143,0.0,5.0,90,0.00,,,0.45,Wunderground v.1.15,2013-09-23 05:05:00,
2013-09-22 22:08:00,55.7,52.8,29.71,ESE,103,0.0,5.0,90,0.00,,,0.45,Wunderground v.1.15,2013-09-23 05:08:00,
2013-09-22 22:09:00,55.8,52.9,29.72,ESE,103,0.0,5.0,90,0.00,,,0.45,Wunderground v.1.15,2013-09-23 05:09:00,
2013-09-22 22:10:00,55.7,52.8,29.71,ESE,102,0.0,0.0,90,0.00,,,0.45,Wunderground v.1.15,2013-09-23 05:10:00,
2013-09-22 22:14:00,55.8,52.9,29.72,East,85,0.0,7.0,90,0.00,,,0.45,Wunderground v.1.15,2013-09-23 05:14:00,
2013-09-22 22:15:00,55.8,52.9,29.72,East,86,0.0,7.0,90,0.00,,,0.45,Wunderground v.1.15,2013-09-23 05:15:00,
2013-09-22 22:19:00,55.8,52.9,29.72,East,85,0.0,7.0,90,0.00,,,0.45,Wunderground v.1.15,2013-09-23 05:19:00,
2013-09-22 22:20:00,55.8,52.9,29.72,SSE,160,0.0,2.0,90,0.00,,,0.45,Wunderground v.1.15,2013-09-23 05:20:00,
2013-09-22 22:24:00,55.8,52.9,29.72,ESE,116,1.0,2.0,90,0.00,,,0.45,Wunderground v.1.15,2013-09-23 05:24:00,
2013-09-22 22:25:00,55.8,52.9,29.72,ESE,122,0.0,2.0,90,0.00,,,0.45,Wunderground v.1.15,2013-09-23 05:25:00,
2013-09-22 22:29:00,55.8,52.9,29.72,NNE,32,0.0,4.0,90,0.00,,,0.45,Wunderground v.1.15,2013-09-23 05:29:00,
2013-09-22 22:30:00,55.8,52.9,29.72,ENE,71,1.0,1.0,90,0.00,,,0.45,Wunderground v.1.15,2013-09-23 05:30:00,
2013-09-22 22:31:00,55.8,52.9,29.72,ESE,105,0.0,5.0,90,0.00,,,0.45,Wunderground v.1.15,2013-09-23 05:31:00,
2013-09-22 22:34:00,55.9,53.0,29.72,SE,138,0.0,5.0,90,0.00,,,0.45,Wunderground v.1.15,2013-09-23 05:34:00,
2013-09-22 22:35:00,55.9,53.0,29.72,East,100,0.0,5.0,90,0.00,,,0.45,Wunderground v.1.15,2013-09-23 05:35:00,
2013-09-22 22:36:00,55.9,53.0,29.73,SE,131,6.0,7.0,90,0.00,,,0.45,Wunderground v.1.15,2013-09-23 05:36:00,
2013-09-22 22:39:00,56.0,53.1,29.72,East,79,0.0,7.0,90,0.00,,,0.45,Wunderground v.1.15,2013-09-23 05:39:00,
2013-09-22 22:40:00,56.1,53.2,29.72,ESE,108,0.0,2.0,90,0.00,,,0.45,Wunderground v.1.15,2013-09-23 05:40:00,
2013-09-22 22:41:00,56.1,53.2,29.72,East,101,0.0,2.0,90,0.00,,,0.45,Wunderground v.1.15,2013-09-23 05:41:00,
2013-09-22 22:44:00,56.1,53.2,29.72,NNE,32,3.0,3.0,90,0.00,,,0.45,Wunderground v.1.15,2013-09-23 05:44:00,
2013-09-22 22:45:00,56.2,53.3,29.73,East,89,0.0,6.0,90,0.00,,,0.45,Wunderground v.1.15,2013-09-23 05:45:00,
2013-09-22 22:46:00,56.2,53.3,29.73,SE,128,0.0,6.0,90,0.00,,,0.45,Wunderground v.1.15,2013-09-23 05:46:00,
2013-09-22 22:49:00,56.2,53.3,29.73,ENE,60,0.0,6.0,90,0.00,,,0.45,Wunderground v.1.15,2013-09-23 05:49:00,
2013-09-22 22:51:00,56.2,53.0,29.73,SE,131,4.0,4.0,89,0.00,,,0.45,Wunderground v.1.15,2013-09-23 05:51:00,
2013-09-22 22:54:00,56.3,53.1,29.73,ESE,116,0.0,5.0,89,0.00,,,0.45,Wunderground v.1.15,2013-09-23 05:54:00,
2013-09-22 22:56:00,56.4,53.2,29.73,ESE,116,0.0,5.0,89,0.00,,,0.45,Wunderground v.1.15,2013-09-23 05:56:00,
2013-09-22 22:59:00,56.4,53.2,29.74,ESE,109,0.0,5.0,89,0.00,,,0.45,Wunderground v.1.15,2013-09-23 05:59:00,
2013-09-22 23:01:00,56.4,53.2,29.74,East,87,0.0,1.0,89,0.00,,,0.45,Wunderground v.1.15,2013-09-23 06:01:00,
2013-09-22 23:02:00,56.5,53.3,29.74,South,186,1.0,5.0,89,0.00,,,0.45,Wunderground v.1.15,2013-09-23 06:02:00,
2013-09-22 23:04:00,56.5,53.3,29.74,NNE,23,0.0,5.0,89,0.00,,,0.45,Wunderground v.1.15,2013-09-23 06:04:00,
2013-09-22 23:06:00,56.6,53.4,29.74,NNE,30,0.0,5.0,89,0.00,,,0.45,Wunderground v.1.15,2013-09-23 06:06:00,
2013-09-22 23:07:00,56.6,53.4,29.74,ENE,65,3.0,5.0,89,0.00,,,0.45,Wunderground v.1.15,2013-09-23 06:07:00,
2013-09-22 23:08:00,56.6,53.4,29.74,ENE,67,0.0,5.0,89,0.00,,,0.45,Wunderground v.1.15,2013-09-23 06:08:00,
2013-09-22 23:09:00,56.6,53.4,29.74,ESE,123,0.0,5.0,89,0.00,,,0.45,Wunderground v.1.15,2013-09-23 06:09:00,
2013-09-22 23:11:00,56.6,53.1,29.74,ESE,122,0.0,0.0,88,0.00,,,0.45,Wunderground v.1.15,2013-09-23 06:11:00,
2013-09-22 23:12:00,56.6,53.1,29.74,SE,130,0.0,2.0,88,0.00,,,0.45,Wunderground v.1.15,2013-09-23 06:12:00,
2013-09-22 23:13:00,56.6,53.1,29.74,SE,130,0.0,2.0,88,0.00,,,0.45,Wunderground v.1.15,2013-09-23 06:13:00,
2013-09-22 23:14:00,56.7,53.2,29.74,SE,130,0.0,2.0,88,0.00,,,0.45,Wunderground v.1.15,2013-09-23 06:14:00,
2013-09-22 23:16:00,56.7,53.5,29.74,ESE,116,0.0,5.0,89,0.00,,,0.45,Wunderground v.1.15,2013-09-23 06:16:00,
2013-09-22 23:17:00,56.7,53.5,29.74,ESE,116,0.0,5.0,89,0.00,,,0.45,Wunderground v.1.15,2013-09-23 06:17:00,
2013-09-22 23:18:00,56.7,53.5,29.74,ESE,116,1.0,5.0,89,0.00,,,0.45,Wunderground v.1.15,2013-09-23 06:18:00,
2013-09-22 23:20:00,56.7,53.5,29.74,ESE,116,0.0,5.0,89,0.00,,,0.45,Wunderground v.1.15,2013-09-23 06:20:00,
2013-09-22 23:21:00,56.7,53.5,29.74,ESE,116,0.0,0.0,89,0.00,,,0.45,Wunderground v.1.15,2013-09-23 06:21:00,
2013-09-22 23:23:00,56.7,53.5,29.74,North,5,0.0,0.0,89,0.00,,,0.45,Wunderground v.1.15,2013-09-23 06:23:00,
2013-09-22 23:25:00,56.6,53.4,29.74,SE,126,0.0,4.0,89,0.00,,,0.45,Wunderground v.1.15,2013-09-23 06:25:00,
2013-09-22 23:26:00,56.6,53.7,29.74,ENE,58,0.0,4.0,90,0.00,,,0.45,Wunderground v.1.15,2013-09-23 06:26:00,
2013-09-22 23:28:00,56.5,53.6,29.74,ENE,57,0.0,4.0,90,0.00,,,0.45,Wunderground v.1.15,2013-09-23 06:28:00,
2013-09-22 23:30:00,56.4,53.5,29.74,ENE,59,0.0,1.0,90,0.00,,,0.45,Wunderground v.1.15,2013-09-23 06:30:00,
2013-09-22 23:31:00,56.4,53.5,29.74,ENE,57,0.0,1.0,90,0.00,,,0.45,Wunderground v.1.15,2013-09-23 06:31:00,
2013-09-22 23:33:00,56.3,53.4,29.74,North,5,0.0,1.0,90,0.00,,,0.45,Wunderground v.1.15,2013-09-23 06:33:00,
2013-09-22 23:34:00,56.3,53.4,29.74,SE,134,0.0,9.0,90,0.00,,,0.45,Wunderground v.1.15,2013-09-23 06:34:00,
2013-09-22 23:35:00,56.2,53.3,29.74,SE,133,0.0,9.0,90,0.00,,,0.45,Wunderground v.1.15,2013-09-23 06:35:00,
2013-09-22 23:36:00,56.2,53.3,29.74,SE,125,0.0,9.0,90,0.00,,,0.45,Wunderground v.1.15,2013-09-23 06:36:00,
2013-09-22 23:37:00,56.2,53.3,29.74,SE,127,0.0,9.0,90,0.00,,,0.45,Wunderground v.1.15,2013-09-23 06:37:00,
2013-09-22 23:38:00,56.1,53.5,29.74,SE,125,0.0,9.0,91,0.00,,,0.45,Wunderground v.1.15,2013-09-23 06:38:00,
2013-09-22 23:39:00,56.1,53.5,29.74,SE,125,0.0,9.0,91,0.00,,,0.45,Wunderground v.1.15,2013-09-23 06:39:00,
2013-09-22 23:40:00,56.0,53.4,29.74,NE,52,0.0,1.0,91,0.00,,,0.45,Wunderground v.1.15,2013-09-23 06:40:00,
2013-09-22 23:42:00,56.0,53.4,29.74,SSE,153,0.0,1.0,91,0.00,,,0.45,Wunderground v.1.15,2013-09-23 06:42:00,
2013-09-22 23:43:00,55.9,53.3,29.74,ESE,122,0.0,4.0,91,0.00,,,0.46,Wunderground v.1.15,2013-09-23 06:43:00,
2013-09-22 23:44:00,55.9,53.3,29.74,ESE,122,0.0,4.0,91,0.00,,,0.46,Wunderground v.1.15,2013-09-23 06:44:00,
2013-09-22 23:46:00,55.9,53.3,29.74,ESE,123,0.0,4.0,91,0.00,,,0.46,Wunderground v.1.15,2013-09-23 06:46:00,
2013-09-22 23:47:00,55.8,53.2,29.74,East,95,0.0,4.0,91,0.00,,,0.46,Wunderground v.1.15,2013-09-23 06:47:00,
2013-09-22 23:48:00,55.8,53.2,29.74,ESE,107,0.0,4.0,91,0.00,,,0.46,Wunderground v.1.15,2013-09-23 06:48:00,
2013-09-22 23:49:00,55.8,53.2,29.74,East,99,0.0,4.0,91,0.00,,,0.46,Wunderground v.1.15,2013-09-23 06:49:00,
2013-09-22 23:51:00,55.8,53.2,29.74,ENE,72,0.0,1.0,91,0.00,,,0.46,Wunderground v.1.15,2013-09-23 06:51:00,
2013-09-22 23:52:00,55.8,53.2,29.74,ESE,103,0.0,1.0,91,0.00,,,0.46,Wunderground v.1.15,2013-09-23 06:52:00,
2013-09-22 23:53:00,55.7,53.1,29.74,East,86,0.0,11.0,91,0.00,,,0.46,Wunderground v.1.15,2013-09-23 06:53:00,
2013-09-22 23:54:00,55.7,53.1,29.74,East,101,0.0,11.0,91,0.00,,,0.46,Wunderground v.1.15,2013-09-23 06:54:00,
2013-09-22 23:56:00,55.7,53.1,29.74,East,79,0.0,11.0,91,0.00,,,0.46,Wunderground v.1.15,2013-09-23 06:56:00,
2013-09-22 23:57:00,55.8,53.2,29.74,East,92,0.0,11.0,91,0.00,,,0.46,Wunderground v.1.15,2013-09-23 06:57:00,
2013-09-22 23:59:00,55.8,53.2,29.75,SE,134,0.0,11.0,91,0.00,,,0.46,Wunderground v.1.15,2013-09-23 06:59:00,